GFSFLT1_850_thetae_000.txt.gz
Theta_e
325 325 325 325 322 322 327 326 325 325 323 323 318 316 317 318 317 313 312 311 311 311 310 307 307 306 306 306 306 306 305 303
324 325 326 325 325 326 325 325 324 322 320 316 316 318 318 314 311 311 311 309 309 307 307 307 307 306 306 305 303 302 301 300
326 327 328 328 326 323 321 321 320 318 317 317 316 312 310 310 310 310 309 309 308 307 306 306 306 303 301 301 300 298 297 295
323 324 324 321 320 317 315 313 312 312 311 312 312 312 311 310 310 309 309 308 306 306 306 304 303 304 303 302 298 297 296 295
320 319 316 314 313 313 313 312 313 313 313 313 313 312 311 310 309 308 307 306 305 304 303 303 303 303 301 298 297 296 296 293
316 314 314 314 314 314 314 313 313 313 313 312 312 311 310 308 306 306 305 304 303 302 299 301 300 300 299 298 298 297 293 292
315 315 315 314 314 314 314 313 313 313 312 311 310 308 306 304 304 303 304 302 301 300 300 300 300 299 297 295 293 292 291 290
315 315 315 314 314 314 313 313 312 311 311 309 307 305 302 301 302 302 303 302 301 300 300 301 300 296 294 293 292 290 289 288
315 315 315 314 314 313 312 312 311 309 308 306 304 302 300 300 300 300 299 298 299 299 299 300 299 297 298 292 291 289 288 288
314 314 314 313 313 312 310 309 307 305 304 302 299 297 296 295 294 293 293 292 293 299 300 299 298 297 293 292 290 288 289 288
313 312 312 312 312 310 307 305 304 303 301 300 298 296 294 294 293 292 291 290 297 299 297 298 295 295 292 290 289 288 288 288
311 311 311 311 309 308 307 303 302 301 299 297 295 294 293 292 291 290 290 293 297 297 296 296 293 292 289 289 288 288 288 288
309 310 309 307 305 302 302 301 301 299 297 295 295 294 293 292 291 290 290 292 295 295 294 294 293 289 288 288 288 288 287 288
309 308 305 302 302 301 301 300 299 297 296 295 295 294 293 292 291 290 290 293 293 294 294 292 288 288 288 288 288 287 288 287
307 304 302 301 301 303 299 298 297 296 295 295 295 294 293 291 291 290 290 292 293 293 291 289 288 289 288 288 288 288 287 287
304 303 302 303 302 299 298 297 296 295 295 295 294 294 293 291 291 291 290 291 292 292 289 288 289 290 288 288 288 287 287 286
303 302 302 301 299 298 297 296 295 295 295 294 294 293 291 291 291 291 291 292 292 291 289 290 290 288 288 288 287 286 285 284
303 302 301 300 298 297 296 295 295 295 294 294 293 292 291 291 291 291 292 292 291 291 290 291 290 288 288 287 286 285 283 281
301 301 300 299 297 296 295 295 295 294 294 293 292 291 292 291 290 291 291 291 291 291 291 288 288 288 287 286 286 283 282 281

GFSFLT1_850_thetae_003.txt.gz
Theta_e
322 322 322 322 320 322 326 325 324 322 322 322 322 317 316 317 313 310 310 310 309 309 309 308 308 307 306 306 305 303 302 301
324 324 324 323 321 322 322 323 324 321 319 318 317 317 317 315 310 309 309 310 309 309 308 307 306 305 305 304 304 303 302 301
326 326 326 326 325 325 323 320 317 316 316 315 315 313 309 310 310 310 310 309 309 308 306 305 304 304 304 304 303 300 299 297
328 327 323 321 319 318 316 314 315 313 311 311 312 312 311 310 310 309 308 308 306 305 304 304 302 301 301 300 298 297 298 296
321 318 316 314 312 311 312 311 312 312 312 312 311 311 310 309 308 306 305 305 304 303 303 301 299 300 299 299 298 297 295 295
314 313 312 312 312 312 313 313 312 312 311 311 310 309 308 306 304 303 303 303 303 302 301 298 297 300 300 299 296 293 292 292
313 313 313 313 313 313 313 313 312 312 311 310 309 308 306 305 303 301 301 300 299 297 296 296 298 299 300 298 296 296 294 291
314 314 313 313 313 312 312 312 312 311 310 308 307 305 302 298 296 295 294 293 293 293 296 299 300 300 297 296 294 292 290 288
314 314 314 313 313 313 313 313 312 308 306 304 301 298 296 294 293 292 291 291 291 290 292 299 300 298 296 297 293 292 289 288
315 315 314 313 313 313 312 309 307 305 303 300 298 296 296 295 294 292 291 291 291 292 297 300 299 296 297 294 291 290 289 288
315 313 312 312 311 309 308 306 304 303 301 299 297 296 295 294 294 292 291 291 291 296 299 299 297 295 293 290 289 288 288 288
313 311 311 310 308 307 307 305 303 302 299 297 297 297 296 295 293 291 290 290 291 296 297 295 294 294 291 289 288 288 288 288
310 310 310 307 306 304 304 303 302 299 298 297 297 296 295 294 291 290 290 291 292 295 294 293 293 293 289 289 288 288 288 287
308 309 307 305 303 305 304 302 299 298 297 296 296 295 294 293 291 290 291 291 291 293 293 292 289 288 289 289 288 288 288 287
309 308 307 304 303 304 302 299 298 297 296 296 295 294 294 292 290 290 291 291 291 291 292 290 290 289 290 290 288 288 287 287
309 309 306 303 305 302 299 298 296 296 296 295 294 294 293 291 290 290 291 291 292 291 292 289 289 290 290 289 288 288 287 286
309 307 305 302 301 300 298 297 296 296 295 295 294 294 293 290 290 290 291 291 292 291 291 290 290 289 290 288 288 287 286 285
309 307 305 302 301 299 297 296 296 295 295 294 293 293 291 291 291 290 290 291 292 291 291 291 291 289 288 288 287 286 285 283
309 306 303 301 300 297 296 296 295 295 294 293 293 291 291 292 291 290 290 291 291 291 291 290 289 288 288 287 287 284 282 282

GFSFLT1_850_thetae_006.txt.gz
Theta_e
326 324 326 327 329 328 325 325 323 324 323 321 322 320 317 316 313 310 310 310 310 309 309 308 307 307 306 306 306 306 305 305
325 325 327 328 329 327 324 323 323 324 320 319 318 317 316 315 309 309 309 309 308 308 307 307 307 307 307 306 305 305 304 304
328 328 328 328 327 326 326 324 324 321 319 318 317 316 313 309 310 310 310 309 308 307 307 307 307 306 306 306 304 302 301 302
328 329 329 329 328 328 326 323 319 317 315 312 311 311 311 311 309 308 308 307 306 306 306 305 305 305 304 304 302 301 300 300
329 330 330 329 327 325 321 317 314 311 310 311 311 312 311 309 308 307 307 306 304 304 304 303 302 302 302 302 300 300 298 297
325 324 324 320 317 315 313 312 311 310 311 311 311 309 308 307 306 305 305 304 303 303 302 302 301 300 301 301 300 298 297 297
318 318 315 314 313 312 311 311 311 312 312 311 309 307 304 302 300 299 298 296 296 296 297 300 301 301 302 300 298 297 296 295
315 314 313 313 313 312 311 311 312 311 310 307 304 302 300 297 296 295 295 295 295 295 294 297 300 301 300 297 296 296 295 293
316 315 314 314 312 311 311 310 311 308 305 304 301 299 297 296 295 294 295 295 295 296 297 299 300 299 297 296 297 295 294 292
317 316 314 312 311 310 310 308 306 304 303 303 298 297 297 295 295 295 294 294 295 297 298 299 299 297 297 296 295 294 293 291
317 314 312 311 310 311 309 306 304 307 305 299 297 297 297 296 294 292 292 292 294 296 297 298 297 297 296 295 293 292 291 290
316 313 312 310 309 309 307 304 305 303 300 297 297 297 297 295 294 292 291 290 294 295 296 296 296 295 294 294 292 291 291 290
315 312 311 310 307 305 304 303 302 300 298 297 297 297 296 295 294 293 292 293 293 294 294 294 294 294 294 292 291 291 291 290
312 311 309 307 304 303 304 301 301 298 298 297 297 296 295 295 294 293 293 293 294 294 294 294 293 293 291 291 291 291 290 289
311 308 307 305 303 305 302 301 299 298 298 297 296 295 295 295 294 293 293 293 293 294 294 293 293 291 290 290 290 290 289 289
309 307 306 304 303 303 301 299 299 298 297 296 296 295 295 295 294 293 292 293 293 294 292 292 291 290 290 290 290 289 289 287
309 308 306 304 303 302 300 299 298 297 297 296 295 294 294 294 293 293 293 293 293 293 293 292 292 290 291 290 288 288 286 286
309 309 307 304 301 301 300 298 297 297 296 295 294 293 294 294 293 293 292 292 293 292 293 292 291 290 289 288 288 287 286 284
310 309 306 303 301 301 299 297 297 296 296 295 293 294 293 293 293 293 293 292 292 291 291 291 291 289 289 288 287 286 284 283

GFSFLT1_850_thetae_009.txt.gz
Theta_e
328 326 325 328 330 329 329 328 323 321 327 322 321 319 317 316 314 312 310 312 310 311 312 311 310 310 310 310 310 309 308 308
329 327 327 329 331 330 330 328 327 327 325 322 320 319 317 315 313 309 310 310 310 310 311 311 310 310 309 309 309 308 307 304
329 329 329 330 331 331 329 328 327 324 322 320 320 319 316 313 312 311 310 310 310 309 309 309 309 308 307 307 307 306 304 302
330 330 331 331 331 330 329 327 324 321 320 318 315 312 313 314 313 311 311 310 309 308 308 307 307 306 304 303 304 304 302 301
331 331 331 330 330 329 325 323 320 318 315 315 315 315 314 312 311 310 309 307 306 304 303 303 303 304 303 302 303 302 301 300
331 332 331 329 328 326 322 319 315 314 314 314 314 313 311 309 306 303 301 300 299 298 298 298 299 302 303 303 303 302 300 299
329 328 327 326 323 320 318 315 314 313 313 312 311 308 305 303 301 299 298 298 298 298 298 298 299 300 302 302 302 300 299 298
323 323 320 318 317 316 315 314 313 312 311 308 305 303 301 300 299 298 298 298 297 297 298 299 300 300 301 300 299 298 298 296
320 319 317 317 317 316 314 313 312 310 306 303 305 302 301 300 299 298 297 297 297 297 298 300 300 300 299 298 298 297 297 295
318 317 317 316 316 315 314 313 310 305 304 309 308 301 298 299 299 298 296 296 296 296 297 299 299 299 298 298 297 296 295 294
318 318 318 317 316 314 313 311 306 305 308 305 301 299 300 299 298 297 296 296 296 296 296 297 298 298 298 296 296 295 294 293
319 319 318 316 315 314 311 307 306 305 304 301 300 300 300 299 298 296 296 295 295 295 295 296 296 296 296 295 295 295 293 293
319 319 317 315 314 312 309 307 305 304 302 302 300 300 299 298 297 296 296 295 295 295 295 295 295 295 294 294 293 293 292 292
320 319 316 315 313 310 307 306 305 303 301 300 300 300 299 298 297 296 295 295 295 295 295 295 294 294 294 294 292 292 292 292
320 319 316 315 312 309 306 305 304 301 300 300 299 299 299 298 297 296 295 294 294 295 295 294 294 293 292 292 292 291 291 291
320 318 315 314 311 308 306 305 303 300 300 299 299 299 298 297 297 296 295 294 294 294 294 294 294 293 292 290 291 291 290 289
318 316 314 312 310 307 306 305 302 300 299 299 299 298 297 296 296 295 295 294 294 294 294 294 294 293 292 290 289 288 288 288
316 315 313 311 309 307 306 303 301 300 299 298 298 297 296 296 295 295 294 294 294 294 293 293 294 293 292 289 288 288 287 287
315 314 312 311 309 306 305 302 300 299 298 297 297 296 295 295 294 294 294 294 294 293 293 292 292 292 291 289 288 287 287 286

GFSFLT1_850_thetae_012.txt.gz
Theta_e
325 324 327 331 329 329 330 329 325 322 326 324 321 318 317 315 314 312 314 312 310 310 312 311 311 311 310 310 309 309 308 308
327 325 326 331 331 329 330 329 323 325 327 321 319 318 317 315 313 310 311 310 311 310 310 310 310 310 309 308 306 307 307 306
329 328 326 329 331 330 330 329 328 328 324 321 320 319 316 314 313 312 312 311 310 309 308 308 307 307 306 305 304 303 303 304
330 328 329 330 332 331 330 329 328 323 321 320 320 317 314 314 313 312 311 310 309 307 306 304 304 302 304 304 303 303 304 303
330 331 331 331 331 331 329 328 324 321 318 316 316 316 315 314 312 311 308 306 304 302 299 298 298 299 301 302 303 303 303 302
331 332 331 331 330 329 327 324 321 318 316 316 315 314 312 310 308 305 301 300 298 298 298 297 295 295 296 300 302 303 302 300
331 332 330 329 330 327 324 320 316 315 315 315 314 313 310 306 304 301 299 298 298 297 297 295 296 298 300 301 302 302 301 299
331 331 330 329 327 324 321 316 315 314 313 313 312 309 308 308 304 299 297 297 297 297 295 295 295 300 301 301 301 299 297 297
330 329 328 326 323 320 317 315 314 313 311 310 308 310 311 305 301 299 295 296 295 295 295 294 298 300 300 297 297 297 296 296
326 325 322 320 319 317 315 314 314 311 308 307 308 310 306 301 298 297 295 294 295 295 294 295 298 299 297 297 296 297 296 296
322 321 319 318 318 317 315 314 313 308 306 308 309 307 303 299 298 297 295 295 294 294 295 295 296 297 298 297 296 296 295 295
320 319 318 318 318 317 315 314 311 306 306 308 305 304 300 299 298 297 296 295 294 295 295 295 295 296 295 295 295 294 294 294
320 319 318 319 318 316 315 314 309 306 306 304 304 301 300 300 299 298 297 295 295 295 295 295 295 295 295 294 294 294 293 293
321 320 320 319 318 316 315 312 308 306 305 303 302 301 301 300 299 298 297 296 295 295 295 295 295 295 294 294 293 292 292 292
322 321 320 319 317 315 314 311 308 306 304 302 301 301 300 300 299 298 297 296 295 294 295 295 295 294 293 292 292 292 292 292
322 322 321 319 317 315 313 310 307 306 303 301 301 300 300 300 298 297 297 296 295 294 294 294 295 294 294 293 292 290 289 289
321 321 321 319 317 316 312 309 307 305 302 300 300 300 299 298 297 296 296 296 295 295 294 294 294 294 294 293 292 289 287 288
318 319 320 319 317 315 312 309 307 304 301 300 300 299 298 299 296 296 296 295 295 295 294 294 293 293 293 293 291 288 288 288
317 317 317 317 315 313 311 308 306 303 301 300 299 298 298 296 295 295 295 294 294 295 294 294 293 293 292 292 291 289 288 287

GFSFLT1_850_thetae_015.txt.gz
Theta_e
326 326 329 329 324 329 330 329 325 324 321 323 321 319 318 317 314 312 311 310 310 310 311 310 310 310 310 309 309 305 305 306
325 325 329 329 327 328 329 326 325 322 324 321 319 317 315 313 313 310 311 311 311 310 309 309 307 305 305 305 303 304 304 302
324 327 329 330 328 328 328 326 325 323 326 320 318 317 316 313 312 312 311 311 310 308 307 305 304 303 301 301 302 302 301 302
326 325 329 331 330 329 328 326 324 327 327 321 318 317 315 313 312 312 311 311 309 306 303 301 299 299 299 299 300 301 303 303
328 327 329 330 330 330 330 329 326 327 323 321 319 317 314 313 312 312 311 309 304 301 298 297 296 295 294 295 297 300 302 302
330 329 329 330 331 331 330 329 328 321 320 320 316 315 315 313 312 312 307 306 301 298 297 296 295 294 295 297 300 302 303 302
330 329 330 330 330 331 329 329 326 321 318 316 315 315 315 314 312 308 310 308 300 296 295 295 294 294 298 300 301 302 301 300
330 331 331 330 330 329 329 327 323 322 320 316 315 315 314 312 309 311 310 302 296 295 295 294 293 296 299 300 299 297 297 296
331 331 331 330 329 329 327 323 322 321 316 315 314 313 311 310 311 309 302 296 295 294 294 293 294 298 299 300 297 296 295 296
330 331 330 329 330 326 323 321 319 318 315 314 312 310 310 310 308 302 297 295 294 294 293 292 293 297 297 298 298 296 296 296
330 330 330 329 328 325 321 317 317 315 314 312 309 309 308 307 302 298 298 297 294 293 293 294 294 293 295 296 296 296 295 294
327 327 326 326 323 321 319 315 314 314 313 310 307 308 306 303 299 299 297 296 295 293 294 294 294 294 295 295 295 295 294 293
325 324 323 320 319 318 317 316 314 314 312 307 307 305 303 300 300 299 298 297 296 294 294 293 294 295 295 295 294 293 293 293
324 322 320 318 318 317 317 316 314 313 310 306 306 304 302 301 300 299 299 297 296 295 294 293 295 295 295 293 293 293 292 292
323 321 319 318 318 318 317 316 315 312 308 306 305 304 302 301 300 299 298 297 297 296 294 294 294 295 295 294 293 293 292 291
322 321 320 319 319 318 317 316 315 312 308 306 304 302 301 301 300 299 298 297 296 296 294 294 294 294 294 294 293 293 293 292
317 319 321 320 319 318 317 316 314 311 307 305 303 301 301 300 299 298 296 295 295 295 295 295 294 294 294 293 293 293 292 288
317 318 320 321 320 318 317 316 314 310 307 305 301 301 300 299 298 299 295 295 295 295 295 294 294 294 293 293 292 292 291 290
316 316 316 318 318 318 317 315 312 308 306 302 300 300 299 298 298 295 295 294 295 294 294 294 294 294 293 293 292 291 290 289

GFSFLT1_850_thetae_018.txt.gz
Theta_e
330 330 328 327 326 323 326 326 326 325 325 322 322 320 318 318 317 313 310 310 310 311 310 310 309 308 308 308 306 304 300 302
330 329 329 329 325 318 324 327 327 327 323 321 322 320 319 317 313 311 310 311 311 310 310 310 307 303 301 300 299 299 300 299
329 329 329 329 323 324 328 329 329 326 322 322 320 318 316 313 312 310 311 311 311 310 309 307 303 300 299 298 298 298 299 301
328 329 329 328 327 325 326 328 326 325 322 322 317 316 314 313 311 311 311 312 311 310 307 303 300 297 296 296 295 297 299 302
325 327 328 328 328 328 326 325 325 323 323 321 319 318 317 315 313 312 312 312 308 308 303 298 297 296 295 294 295 296 299 302
324 324 326 328 329 329 328 327 325 323 325 326 321 319 318 316 313 312 312 309 307 304 299 297 296 295 294 294 296 299 301 301
324 324 326 328 329 330 328 329 327 327 327 326 323 319 317 314 313 312 310 308 306 301 297 295 294 294 293 296 298 300 298 296
326 325 327 329 329 329 330 330 329 327 323 321 320 319 315 314 312 311 308 305 300 296 295 294 294 293 294 297 298 299 296 295
328 328 328 330 329 329 330 330 329 323 320 319 316 315 314 312 310 309 306 301 297 295 294 294 293 293 295 297 299 297 297 295
330 329 329 330 330 330 329 329 328 324 318 317 315 313 312 311 309 308 302 297 296 299 295 293 293 293 294 295 297 297 295 296
329 330 330 330 330 330 329 327 326 322 319 316 315 313 310 309 307 303 298 301 297 295 294 293 292 292 292 293 295 295 295 294
330 330 331 331 330 329 328 327 325 322 320 318 315 312 309 308 307 302 302 298 299 295 294 293 292 291 293 294 295 295 294 294
329 329 329 329 329 329 328 327 325 325 323 317 314 312 310 308 305 300 300 300 298 296 295 294 292 292 294 295 295 294 292 293
329 329 328 328 328 329 328 327 325 319 316 314 313 311 308 307 304 301 300 300 298 297 296 294 293 293 294 295 295 294 293 292
328 327 327 327 327 327 326 322 318 316 315 314 312 310 307 305 303 301 300 299 298 297 296 295 294 294 294 295 294 294 293 293
324 322 322 324 324 323 320 318 317 316 315 313 311 307 306 303 301 301 299 298 297 296 295 295 295 294 294 294 294 293 293 293
317 316 318 320 319 319 318 318 317 316 315 312 307 305 303 301 301 299 298 296 295 295 296 295 295 294 294 294 294 293 293 293
316 316 317 319 319 318 318 317 317 316 314 308 306 304 301 301 299 298 298 298 299 295 294 295 295 294 295 294 293 293 293 292
314 314 314 315 316 318 319 318 317 315 309 306 303 301 301 299 298 298 298 299 295 294 294 294 293 294 294 294 293 293 292 291

GFSFLT1_850_thetae_021.txt.gz
Theta_e
328 326 327 325 326 327 328 326 325 325 325 328 328 323 320 319 318 317 316 313 310 310 310 309 309 308 306 303 301 300 298 298
329 326 326 326 326 327 326 324 325 326 327 327 324 320 320 318 315 313 311 310 310 311 310 310 308 307 304 301 298 298 297 297
330 329 328 326 324 326 327 325 326 327 327 326 324 321 319 316 314 312 310 310 311 311 310 309 310 309 305 300 298 297 296 296
330 329 329 327 327 324 321 324 325 325 326 325 321 320 317 315 313 311 310 311 311 310 309 310 308 304 299 297 296 295 295 296
329 330 329 328 328 326 317 319 323 326 327 325 322 321 317 315 312 311 310 311 311 309 308 307 305 301 297 295 295 295 296 299
327 328 328 328 328 326 321 323 326 328 327 325 323 319 317 315 314 311 311 311 311 307 306 303 299 296 295 294 295 297 299 299
325 327 328 328 328 327 324 325 326 327 326 324 322 322 320 317 315 313 312 311 310 305 302 298 295 295 299 294 296 297 298 298
324 324 327 328 328 327 327 327 327 326 324 325 323 324 322 318 317 314 312 310 306 303 298 295 301 306 295 295 296 298 297 296
323 325 324 325 326 327 328 328 328 327 326 325 323 326 323 318 316 313 311 306 303 298 295 304 301 293 293 294 295 296 297 296
324 325 326 324 324 325 328 328 328 328 327 327 326 324 321 317 315 312 308 305 301 297 305 305 293 293 292 292 293 295 295 295
324 326 326 325 325 326 327 328 328 327 327 326 322 319 318 315 313 311 306 306 300 305 299 295 296 293 292 295 293 294 294 294
326 326 327 327 328 328 329 329 329 327 326 325 322 318 316 313 310 307 305 301 302 300 297 297 295 295 294 292 294 294 295 294
326 328 329 329 329 329 330 330 328 328 325 323 320 317 314 312 309 308 306 302 300 300 296 297 295 293 293 293 293 294 294 293
327 328 329 329 329 330 330 329 327 326 322 320 317 316 314 310 309 308 304 301 301 298 297 295 295 296 294 293 294 294 294 294
325 328 329 329 330 330 329 328 326 323 320 318 317 316 312 311 309 306 303 301 301 298 297 296 296 295 294 294 294 294 294 294
324 327 328 329 328 327 326 325 324 322 320 318 317 313 312 309 307 303 301 300 298 297 296 299 295 295 295 294 294 294 294 294
319 320 322 322 322 323 324 324 321 319 318 318 314 312 310 307 304 301 299 297 296 295 298 298 295 295 295 295 295 294 294 294
315 315 315 315 316 318 318 318 319 319 317 315 313 311 307 304 301 299 297 296 296 297 300 295 294 294 294 293 294 294 294 293
314 314 314 314 314 315 316 317 316 316 315 312 310 306 304 302 300 297 297 298 298 300 299 294 294 293 293 293 293 294 293 293

GFSFLT1_850_thetae_024.txt.gz
Theta_e
325 323 324 324 325 324 323 322 323 324 325 325 326 327 326 327 322 320 321 321 321 316 310 310 309 308 306 303 300 299 298 298
327 325 325 326 326 324 324 324 323 323 324 324 327 327 328 324 320 320 320 320 316 310 310 309 308 305 303 301 299 297 297 296
328 327 326 326 324 325 325 326 323 324 325 324 326 327 322 320 319 318 317 314 310 310 310 308 306 304 302 299 297 297 296 296
328 328 327 326 323 321 321 323 325 324 324 326 327 325 321 319 317 314 311 310 310 310 309 308 305 302 300 298 298 298 297 296
329 329 328 327 326 324 324 323 324 324 325 326 327 326 322 319 317 315 312 310 310 310 310 307 305 303 299 297 299 303 296 296
329 328 328 327 327 326 326 325 325 324 325 326 326 325 322 320 316 314 312 310 310 310 309 305 304 301 297 304 309 305 296 296
328 328 329 329 328 327 327 327 323 323 325 326 325 326 324 320 316 314 312 311 311 310 308 305 303 298 300 308 307 295 294 295
326 326 327 328 328 327 327 327 325 321 325 325 325 325 324 321 320 320 313 312 311 310 306 301 297 302 306 303 296 295 294 293
325 325 326 326 327 327 327 327 327 322 323 326 325 325 323 321 321 320 317 314 312 309 306 311 303 306 308 301 296 292 295 295
322 324 325 325 325 326 326 327 327 326 326 325 325 324 324 324 321 317 317 313 310 308 305 305 304 305 305 294 295 295 295 295
321 322 323 324 323 324 325 326 326 326 327 326 325 326 325 325 323 317 314 311 309 303 303 301 302 299 294 296 294 293 294 294
323 324 324 324 324 325 326 324 324 325 326 327 325 325 325 324 322 317 313 310 309 305 301 301 298 295 296 293 297 293 294 294
324 324 325 325 325 325 325 325 325 326 326 325 324 323 324 321 318 316 311 310 305 301 300 299 296 294 295 299 293 293 293 293
322 324 325 326 326 327 326 326 326 325 325 324 323 324 322 318 316 314 311 307 302 300 299 297 296 297 299 294 294 294 294 294
322 322 325 327 328 327 327 326 326 327 325 324 323 322 319 316 315 311 308 303 301 300 298 297 296 298 298 295 294 294 294 294
322 323 324 326 327 327 327 327 326 326 325 322 320 317 315 315 312 308 304 302 299 299 297 296 298 300 296 295 295 295 294 294
317 317 317 317 317 318 318 318 318 320 321 320 317 315 314 314 309 304 302 299 298 297 296 297 298 300 296 295 295 295 294 294
314 314 314 314 314 313 313 315 316 316 317 317 315 314 313 312 306 303 300 298 297 296 297 297 299 298 295 294 293 294 293 293
313 313 313 313 313 313 313 315 316 315 314 314 313 310 307 304 303 300 297 297 296 296 297 299 298 296 294 293 292 292 292 293

GFSFLT1_850_thetae_027.txt.gz
Theta_e
322 320 320 322 323 323 324 324 323 320 315 320 321 324 326 326 326 325 324 324 323 322 320 316 310 310 308 305 302 299 298 297
323 321 320 321 322 323 324 323 321 317 319 323 324 325 325 325 325 326 322 322 322 321 317 310 310 309 306 303 300 298 297 297
325 324 324 322 322 323 324 323 322 321 323 324 325 325 326 325 327 324 321 321 321 320 312 310 309 307 305 302 298 297 298 300
329 328 326 324 324 323 323 323 323 322 323 324 324 325 326 327 325 321 319 319 318 315 310 310 308 306 303 299 297 302 307 306
328 327 327 325 325 325 325 324 324 325 323 324 324 324 324 324 321 320 318 316 313 310 310 310 308 304 301 297 304 307 306 303
328 329 327 327 326 325 324 324 324 325 326 324 324 324 325 324 322 319 316 313 311 310 310 310 309 305 301 299 306 307 308 307
328 328 329 328 328 327 326 324 324 324 324 323 324 325 325 325 323 319 316 314 312 310 310 310 307 304 302 309 310 307 308 302
328 328 328 329 328 328 327 326 326 326 326 325 322 326 326 325 323 320 318 318 317 312 310 310 306 302 305 306 307 308 303 294
326 327 327 327 328 328 328 327 327 326 327 326 325 326 325 324 322 319 319 317 318 315 311 308 302 302 307 303 307 301 295 298
321 323 325 326 327 326 327 328 328 327 326 327 324 322 323 324 323 320 317 317 316 312 309 304 302 310 304 302 299 297 298 296
318 319 321 323 324 325 325 326 326 327 327 327 327 324 324 323 323 321 319 317 315 312 306 301 309 301 300 302 297 297 299 293
321 320 320 321 322 323 324 324 324 325 326 326 326 325 324 323 322 323 321 317 315 312 304 307 300 299 300 296 296 300 297 294
321 323 323 323 323 323 323 323 324 324 325 326 325 325 324 323 322 323 322 321 317 309 305 302 299 301 296 296 299 296 293 294
321 323 324 324 324 324 324 325 325 325 324 324 325 325 324 323 322 321 321 318 313 303 300 298 299 297 297 299 301 295 294 294
320 321 323 325 326 326 327 326 326 326 326 326 325 325 324 322 320 319 317 315 308 302 298 297 296 296 299 299 300 295 294 294
321 322 323 325 326 326 326 326 325 324 323 322 322 322 321 319 318 316 313 308 304 299 298 298 296 297 298 299 298 294 295 295
316 316 316 316 316 316 315 315 315 315 315 317 317 317 316 316 314 312 307 303 299 298 298 297 298 297 297 299 295 295 294 294
313 313 313 313 313 313 313 313 314 314 315 315 315 314 313 312 310 308 305 301 298 297 296 296 297 297 298 298 297 294 293 293
313 313 313 313 312 312 312 312 312 313 314 313 312 311 310 309 308 305 300 298 297 296 297 298 298 297 298 298 295 293 292 291

GFSFLT1_850_thetae_030.txt.gz
Theta_e
327 328 328 325 324 325 325 325 325 325 326 322 319 320 326 326 326 325 324 324 325 324 321 321 319 314 310 309 307 303 304 305
326 327 327 327 327 326 326 326 326 326 326 321 320 325 327 326 326 326 326 325 324 323 322 321 317 311 311 308 306 303 301 302
326 326 325 325 326 327 327 327 327 327 325 321 322 324 326 325 325 325 325 324 322 322 322 320 314 311 309 307 305 302 304 305
327 327 327 326 326 326 327 327 328 327 325 323 325 325 324 325 324 324 324 324 321 321 321 319 312 310 309 307 305 301 306 306
328 330 329 328 327 327 327 327 328 328 327 326 324 324 326 325 324 324 324 322 320 321 320 317 311 310 309 306 303 303 307 310
328 329 330 331 329 328 329 329 328 328 328 325 326 326 327 327 323 323 323 321 319 319 318 314 310 310 308 304 301 304 309 308
328 329 330 330 331 330 329 329 329 328 328 324 325 326 327 325 323 323 323 321 318 317 314 311 310 309 307 302 301 309 307 306
329 329 329 330 331 331 330 330 329 328 327 324 324 326 326 323 324 323 324 321 317 315 312 311 309 309 307 301 305 311 307 303
328 329 330 330 332 332 331 329 330 329 326 323 324 325 324 323 322 324 324 322 319 316 313 315 309 307 303 301 311 307 302 299
324 327 329 330 331 332 332 331 330 330 329 327 326 326 325 324 323 324 324 322 318 316 314 316 306 304 299 307 308 302 297 299
321 323 325 327 329 331 331 331 330 330 330 328 327 327 327 326 325 324 323 322 320 316 313 310 305 306 303 309 301 298 300 301
324 323 323 324 326 329 329 329 328 329 330 329 327 327 326 326 323 323 323 322 321 318 314 314 312 301 306 299 297 299 299 300
325 325 325 325 326 327 327 328 328 329 329 329 327 326 326 326 324 323 322 322 321 319 315 313 305 300 300 297 296 298 300 301
324 327 327 325 323 325 326 325 326 327 325 324 324 324 325 325 324 323 322 321 320 317 315 310 302 300 297 298 296 299 300 300
324 326 327 327 327 325 325 325 325 325 325 325 325 324 323 323 322 321 320 319 318 317 313 305 301 296 296 296 297 300 300 297
324 326 326 326 326 325 325 326 326 325 323 321 320 320 320 319 319 318 316 316 314 312 307 300 297 295 296 298 299 299 298 297
319 319 319 318 319 320 317 316 316 315 315 315 316 316 316 315 315 314 313 311 307 303 299 299 296 296 297 300 299 298 297 296
314 314 315 314 314 314 313 313 314 314 314 314 314 314 313 313 311 309 308 304 302 300 298 298 296 296 298 299 298 297 298 295
311 312 312 312 312 312 311 311 311 312 312 312 311 310 310 309 309 307 305 303 302 300 299 297 296 298 297 298 297 297 296 294

GFSFLT1_850_thetae_033.txt.gz
Theta_e
327 324 324 324 324 323 324 324 323 322 322 322 321 320 321 323 327 327 328 327 325 325 323 321 320 319 317 315 314 310 310 309
326 328 325 325 325 324 324 323 324 325 325 324 321 320 322 326 326 327 328 326 324 324 323 321 321 318 316 315 312 309 308 307
325 327 327 326 326 326 325 325 325 325 324 324 321 321 323 326 326 328 328 327 324 322 323 321 321 318 316 313 310 310 309 309
325 325 327 327 327 327 326 326 326 327 327 325 321 321 324 326 327 327 327 325 324 323 322 321 319 317 315 311 309 308 309 309
326 326 325 327 327 328 328 327 327 327 327 325 322 324 324 326 327 327 326 324 324 323 322 321 318 317 314 311 309 308 307 309
326 327 326 326 326 327 328 328 328 328 328 327 324 326 326 326 327 327 324 326 324 323 321 319 317 316 311 309 307 306 304 310
326 327 328 328 328 328 328 328 327 328 329 329 327 327 327 326 328 328 326 324 323 321 318 317 316 313 309 307 306 303 304 310
326 326 327 328 330 331 330 329 328 329 329 329 329 328 328 328 329 327 324 321 322 322 321 320 315 312 309 312 308 307 307 310
327 327 327 328 329 331 332 331 330 329 329 329 329 329 329 329 328 326 324 322 322 322 318 319 317 313 312 311 306 308 305 310
327 327 328 328 329 331 332 333 331 332 331 330 329 329 328 329 328 325 322 320 322 323 323 318 315 311 312 309 308 302 308 305
324 325 328 328 330 331 333 334 333 332 332 332 331 330 329 327 326 325 324 322 322 322 321 317 311 311 312 311 309 303 305 303
326 324 325 327 329 331 333 334 334 334 333 333 332 330 329 329 327 325 325 324 323 321 320 317 313 312 312 311 304 303 302 301
326 327 326 326 327 329 331 333 333 333 333 332 331 330 328 328 327 325 324 323 321 320 318 317 314 310 309 306 301 302 300 300
325 328 328 328 328 329 330 331 331 331 331 332 331 330 329 327 326 324 320 320 320 318 318 315 311 308 305 301 301 298 299 299
323 328 329 329 329 329 330 330 330 330 330 328 328 327 326 325 324 320 321 320 319 317 315 312 308 306 300 300 298 299 298 300
324 327 329 329 329 329 329 328 327 326 325 325 325 323 321 320 319 317 315 314 315 315 314 310 306 301 299 298 298 298 298 299
325 328 328 328 328 327 325 323 321 321 320 319 318 317 316 315 313 313 314 313 312 310 308 305 302 299 298 299 298 297 298 298
322 321 321 320 320 319 318 317 317 316 315 314 313 313 312 313 312 311 310 308 305 304 303 301 299 299 298 297 297 297 298 298
318 317 316 316 316 315 314 314 313 312 311 311 310 309 308 307 306 307 305 304 302 300 299 298 298 298 299 297 297 298 297 297

GFSFLT1_850_thetae_036.txt.gz
Theta_e
325 323 323 321 318 315 313 315 315 312 313 315 318 317 320 321 320 322 323 321 327 324 324 323 323 320 319 317 316 315 313 311
326 324 324 321 318 319 317 317 318 314 319 321 323 320 319 317 322 324 324 324 326 325 325 324 323 320 319 317 315 314 311 310
326 325 325 325 320 322 322 320 319 321 322 320 321 321 318 317 323 326 323 324 326 325 324 324 321 320 319 317 315 313 310 309
326 326 325 325 325 323 324 325 324 323 324 321 324 322 320 321 324 324 322 327 326 325 323 323 322 320 319 317 316 312 310 309
326 326 328 326 326 326 325 324 324 324 325 324 326 323 320 323 325 326 325 325 327 325 324 323 322 320 318 317 316 312 309 309
325 325 327 328 327 327 326 326 326 326 325 325 327 324 321 322 326 328 327 328 326 324 325 323 322 320 318 315 313 311 309 309
327 326 325 327 328 328 328 327 327 326 327 326 327 325 323 325 326 327 326 325 324 325 324 323 321 320 319 317 316 312 308 307
327 327 326 326 326 327 327 328 328 328 328 328 328 326 326 325 326 327 328 327 324 324 324 323 322 320 319 318 316 310 308 305
327 326 328 328 327 327 326 327 327 328 328 328 329 327 327 329 327 327 328 326 324 320 322 321 321 319 318 318 315 311 309 308
327 327 326 328 329 329 329 329 329 328 328 328 328 329 329 325 320 326 328 326 325 324 322 321 320 320 319 319 315 310 310 310
326 328 327 327 328 331 330 331 331 331 330 330 329 330 330 324 322 326 327 325 325 325 322 321 322 322 319 316 311 309 311 306
325 325 325 327 329 329 331 333 333 332 332 332 331 330 329 327 326 328 326 326 325 324 322 320 320 318 315 311 309 308 308 303
325 326 325 326 327 329 332 333 333 334 334 333 331 331 331 330 328 328 328 326 323 323 321 320 318 316 315 310 307 307 303 302
325 327 327 326 327 328 330 331 334 335 333 333 331 330 330 327 328 327 325 323 320 319 318 316 317 315 312 307 306 305 302 301
322 327 328 328 329 329 330 331 332 332 332 332 331 332 329 328 325 324 322 321 320 319 317 315 313 311 308 306 305 302 300 299
322 326 329 329 329 330 331 331 331 331 331 329 329 328 327 324 322 321 318 318 317 316 315 313 311 309 307 305 302 301 300 299
323 325 330 330 330 330 330 329 329 327 327 326 326 323 320 318 316 315 314 314 313 314 312 311 310 308 305 301 301 299 299 298
325 328 329 329 329 328 325 324 322 322 321 320 318 316 316 315 314 313 312 311 309 307 306 304 303 301 300 299 298 298 297 297
325 324 324 324 322 320 319 318 317 316 315 314 313 312 311 310 308 309 309 306 304 302 301 300 298 298 297 298 298 297 297 297

GFSFLT1_850_thetae_039.txt.gz
Theta_e
322 322 322 321 321 320 319 317 317 315 317 317 318 316 317 316 317 317 319 320 320 315 320 324 323 322 321 320 317 315 314 313
321 321 321 321 320 319 318 318 319 318 317 316 315 316 317 317 318 322 320 323 321 319 322 324 323 322 322 320 317 316 315 313
323 321 321 319 317 317 315 315 314 314 313 314 314 315 315 316 320 320 320 321 323 323 322 324 323 323 323 320 318 316 315 313
324 324 321 317 316 315 316 315 313 315 316 316 317 320 320 319 316 315 321 324 321 321 324 324 323 323 322 320 318 317 315 313
326 325 324 319 318 317 316 316 315 315 319 319 320 320 321 320 315 317 322 323 321 322 323 323 322 323 322 320 318 317 316 311
326 326 326 325 322 320 319 318 317 319 320 321 320 318 322 321 320 320 321 324 323 323 324 323 323 323 322 320 318 316 315 313
325 325 326 325 326 325 323 321 322 321 320 322 324 324 325 323 321 321 325 325 326 325 324 325 324 323 322 321 320 319 318 318
325 326 326 326 326 327 326 325 324 324 324 324 322 324 326 325 321 321 323 327 326 324 324 323 323 324 322 322 320 319 318 317
325 325 325 326 326 326 327 327 326 326 326 326 326 325 325 327 323 323 326 326 323 325 325 323 323 324 322 321 319 318 317 315
326 326 325 325 325 326 326 326 326 326 327 327 327 327 326 326 326 324 322 324 322 321 324 324 322 323 322 320 319 318 317 312
327 326 326 326 326 326 326 326 326 326 325 326 328 328 328 328 327 327 324 320 321 321 324 324 323 321 320 320 320 318 313 309
326 327 327 327 326 326 326 327 327 327 328 327 327 328 328 329 329 327 324 323 323 326 325 323 322 320 319 320 318 315 311 308
324 324 325 325 328 328 328 328 328 327 323 328 328 329 329 329 329 328 326 323 326 326 324 321 319 320 319 318 315 312 308 307
324 324 322 323 325 327 331 330 330 329 328 324 329 329 328 321 324 327 326 326 325 325 323 321 319 319 318 315 313 309 306 306
325 325 323 322 324 327 332 333 332 331 331 331 331 331 330 330 329 328 326 326 324 321 319 319 317 316 315 312 310 306 305 304
325 326 326 326 326 328 329 331 332 331 331 332 331 331 331 329 327 325 324 322 320 318 317 316 315 313 311 310 308 305 304 302
321 325 328 328 329 329 330 331 331 330 330 330 330 330 329 327 323 322 318 317 315 315 314 314 313 311 309 307 305 303 301 300
322 327 329 329 329 329 330 330 330 329 329 328 328 326 325 322 316 314 312 312 312 312 312 311 310 308 305 302 300 299 299 298
323 327 330 330 330 329 329 329 328 327 326 325 324 322 318 315 314 313 313 312 311 308 306 304 302 301 299 298 298 297 297 297

GFSFLT1_850_thetae_042.txt.gz
Theta_e
322 322 322 322 322 322 322 320 317 317 317 319 317 316 314 314 315 315 316 318 317 317 318 319 321 322 322 321 320 318 317 314
323 322 322 321 321 321 320 319 319 317 317 317 317 315 313 313 315 315 316 319 318 319 318 317 321 322 322 321 320 320 318 314
323 320 322 321 321 319 319 319 318 316 315 315 314 313 313 314 315 315 315 318 319 323 323 319 322 323 323 322 321 321 316 315
323 320 320 321 320 320 319 318 318 316 314 315 316 316 316 317 315 315 316 321 321 323 323 321 322 323 323 323 323 321 318 316
325 321 319 318 318 319 318 319 320 318 317 317 317 316 316 315 316 316 318 320 320 320 322 323 322 323 323 323 323 321 319 317
325 324 322 318 317 317 316 318 318 315 314 314 315 315 315 315 316 316 318 320 316 322 324 320 321 324 324 323 323 320 319 317
326 325 324 321 317 317 316 316 316 316 318 315 314 314 314 315 315 316 315 313 316 320 323 322 323 322 322 322 322 321 320 319
325 325 324 324 318 317 316 315 316 317 317 318 319 318 319 319 315 318 320 319 319 320 323 324 323 323 322 323 323 321 321 319
325 325 325 325 324 322 319 317 316 316 317 319 319 319 320 318 318 322 324 321 319 324 325 325 323 322 323 322 323 322 321 319
325 325 325 325 325 324 323 324 323 320 318 318 319 319 321 322 323 324 325 323 321 321 323 323 323 323 323 322 323 322 321 319
325 325 325 325 325 325 325 324 324 323 324 322 323 324 324 324 323 324 325 323 322 325 324 324 322 321 322 323 321 320 320 319
325 324 325 325 325 325 325 325 326 325 325 325 324 325 325 325 326 326 326 324 325 322 323 321 322 320 322 321 321 319 318 318
323 324 325 325 325 325 326 326 326 326 326 326 326 326 326 327 326 326 325 325 324 315 318 321 322 323 323 320 320 319 318 316
325 325 325 325 325 325 325 325 326 326 327 327 327 325 322 327 326 324 324 326 324 318 319 325 323 321 320 320 318 317 314 312
324 324 324 324 325 326 327 327 327 326 326 327 326 324 321 323 327 327 324 322 325 324 324 323 321 319 318 317 315 314 312 308
323 323 323 324 322 323 324 326 328 328 327 327 327 326 324 327 328 327 325 324 324 324 322 320 317 315 314 314 313 311 310 306
321 325 323 324 323 323 323 326 329 331 329 329 329 329 329 327 326 327 325 324 322 319 318 316 314 314 313 312 309 309 307 304
320 323 324 325 325 325 325 327 329 330 330 331 329 328 326 327 326 323 321 319 317 316 314 312 312 312 311 309 308 305 302 301
320 320 323 325 327 328 328 329 330 330 329 328 327 326 324 323 322 320 319 315 311 311 311 311 311 309 308 305 302 300 299 299

GFSFLT1_850_thetae_045.txt.gz
Theta_e
323 320 321 321 323 322 323 324 322 322 322 318 315 320 319 320 317 318 317 321 316 318 318 318 319 320 322 321 320 319 318 316
324 320 322 321 321 320 321 322 321 319 317 317 319 318 322 318 316 317 318 320 319 321 319 317 316 320 320 321 321 320 319 317
325 321 322 321 321 321 320 320 321 318 315 317 317 317 318 317 315 315 315 316 316 316 317 317 318 320 321 322 322 321 318 317
325 323 320 321 321 321 320 320 320 319 317 317 316 317 316 316 315 315 315 315 316 317 318 320 323 322 321 322 322 321 321 320
325 324 320 319 320 321 320 319 319 318 318 318 318 318 317 315 314 314 315 315 315 316 320 322 324 322 322 322 323 322 322 322
326 325 324 318 318 319 320 320 319 319 318 317 316 315 316 316 315 314 313 314 315 316 320 320 321 321 323 322 322 323 322 322
326 326 324 321 317 317 318 319 319 319 318 317 315 314 315 316 315 316 315 314 315 316 319 320 320 322 321 321 322 322 322 322
326 326 325 324 320 317 317 317 318 319 318 316 317 316 317 317 317 316 315 315 315 316 318 318 314 322 322 322 322 322 321 321
325 326 326 325 323 319 317 316 316 317 317 315 315 316 317 316 315 315 315 315 315 314 315 315 316 320 322 321 323 322 322 322
325 325 325 325 324 323 318 316 315 316 316 317 317 315 315 316 315 315 314 315 316 316 321 323 320 321 319 322 323 319 322 322
324 324 324 325 325 324 323 319 317 316 315 316 317 318 317 316 315 316 317 318 318 318 323 324 322 321 323 323 322 321 322 322
325 325 325 325 325 324 324 323 321 318 317 316 316 316 317 317 318 319 319 320 322 323 324 324 321 321 322 323 322 321 322 322
325 325 326 325 325 325 324 324 324 324 321 320 319 318 318 320 321 322 323 323 323 320 321 323 316 317 318 321 322 321 321 321
323 325 325 325 325 325 325 325 325 325 324 323 322 323 323 324 324 321 323 324 324 324 320 317 319 317 318 320 321 322 321 318
321 322 322 323 323 324 324 325 325 325 325 325 324 324 325 325 325 324 325 325 325 321 324 317 318 317 318 322 320 320 318 315
323 324 323 322 323 323 324 325 325 325 325 325 325 326 326 326 326 326 324 326 327 326 324 323 322 322 322 320 319 317 315 313
322 324 323 322 323 322 322 323 324 325 326 326 325 326 327 327 326 324 323 325 326 326 323 322 322 321 319 317 315 313 312 311
320 321 322 323 322 322 321 322 321 323 325 327 326 326 326 326 326 324 323 324 325 325 323 322 320 318 315 314 313 312 310 309
320 320 320 321 323 324 323 324 324 325 327 328 329 327 327 327 325 325 326 324 323 322 320 317 315 314 313 313 311 309 307 304

GFSFLT1_850_thetae_048.txt.gz
Theta_e
322 319 322 321 322 324 324 326 325 322 318 324 321 322 321 317 318 316 316 316 316 317 318 319 318 319 320 321 320 319 317 315
324 320 320 323 323 322 323 324 324 322 319 323 322 317 316 315 315 320 319 318 317 320 319 318 320 320 319 321 321 320 320 319
324 323 319 321 321 321 322 323 323 322 319 323 320 318 318 315 318 321 318 320 319 320 317 318 318 318 318 318 321 321 320 320
324 324 321 321 320 321 320 321 322 322 322 322 320 318 317 315 319 319 317 316 315 319 319 318 318 319 319 319 320 321 321 321
323 325 324 319 320 321 320 320 321 321 321 320 319 317 315 316 319 316 316 316 315 317 318 317 316 318 322 322 322 322 322 321
324 324 325 322 319 320 320 320 319 320 320 318 318 317 318 317 319 316 314 315 315 315 316 316 317 319 321 322 322 322 322 322
327 325 325 325 320 319 320 320 319 320 319 319 317 317 316 317 317 316 316 315 315 315 315 314 315 318 319 320 320 321 322 322
326 326 326 326 324 318 318 319 319 319 319 319 318 318 318 317 316 316 315 315 314 314 314 313 314 316 318 319 318 320 322 322
323 325 326 326 325 323 317 316 318 319 319 318 318 318 318 317 316 316 316 316 315 314 315 313 314 315 317 317 315 319 323 322
323 324 326 326 326 325 323 318 315 316 317 317 317 317 317 317 316 315 316 317 316 316 315 314 315 316 316 321 321 319 319 320
323 325 326 326 325 325 325 323 321 316 315 316 317 316 315 316 316 316 317 316 316 316 315 315 315 317 318 320 322 320 317 318
324 324 325 325 325 325 325 324 323 322 317 315 316 316 316 316 315 315 315 315 315 315 314 314 317 319 320 322 322 319 319 321
322 323 323 324 324 324 324 324 324 324 323 318 316 316 315 316 316 316 320 319 317 316 317 318 320 320 321 321 321 319 319 320
321 322 323 324 324 325 325 325 325 324 324 323 321 318 317 317 316 316 317 318 319 319 320 321 322 320 320 320 317 319 316 319
318 319 321 323 324 325 325 324 324 324 324 324 323 322 322 320 320 320 319 318 319 320 321 322 323 323 322 318 317 317 319 321
319 320 320 321 323 324 323 323 323 323 324 324 324 324 324 323 323 323 323 323 323 323 323 323 323 322 322 316 317 318 321 319
320 319 320 322 322 321 322 321 321 322 323 323 324 324 324 324 324 324 324 324 324 324 324 324 324 323 324 323 319 322 319 316
320 320 320 321 322 321 321 321 321 322 323 324 324 324 324 325 325 325 325 325 325 325 324 324 324 322 322 322 320 317 316 314
320 321 321 320 321 321 321 322 322 322 324 324 324 324 325 325 325 325 326 325 325 324 323 322 321 321 320 318 316 314 313 310

GFSFLT1_850_thetae_051.txt.gz
Theta_e
321 320 321 323 324 324 324 323 323 322 321 321 322 319 318 316 317 319 317 317 317 317 318 318 318 318 319 320 319 316 313 312
321 321 320 322 322 324 323 323 322 322 322 321 319 318 319 318 317 319 318 317 316 316 317 318 318 318 319 320 320 320 318 317
323 323 319 320 321 322 323 323 324 322 322 320 319 318 317 317 317 318 320 316 316 316 317 318 319 319 319 319 320 320 320 319
323 323 322 319 321 321 321 322 324 322 322 318 317 318 321 321 319 320 318 316 316 317 317 320 319 318 317 317 317 318 320 320
323 324 324 320 319 320 320 321 322 323 322 322 321 321 319 319 317 316 318 319 318 317 319 319 317 318 317 318 320 320 321 321
324 323 323 324 319 319 320 320 321 322 322 321 321 321 317 316 315 315 315 316 316 317 316 319 318 317 318 319 318 319 321 322
326 325 323 324 321 318 320 320 320 321 322 321 322 321 318 317 317 315 315 320 317 317 317 316 316 316 317 319 320 318 320 321
324 325 324 324 324 320 318 320 320 321 321 321 322 322 319 317 316 315 315 318 316 316 316 316 315 315 315 314 317 318 319 319
322 322 326 326 325 324 318 318 319 319 320 321 320 320 320 319 317 316 316 318 316 315 314 314 314 315 314 313 313 315 317 318
321 322 323 326 326 325 323 318 316 318 318 319 319 319 319 318 317 317 317 317 318 317 316 315 315 314 314 314 314 314 316 318
321 321 322 323 326 325 325 323 320 315 316 317 317 317 319 319 319 319 318 317 317 316 316 316 316 316 315 315 314 315 316 319
321 322 322 323 325 326 325 325 323 320 316 315 316 317 317 317 317 317 317 317 317 316 316 317 317 316 315 315 315 315 320 320
320 321 323 323 324 325 325 325 325 324 322 317 315 315 316 316 316 315 316 316 316 318 317 316 315 315 315 315 314 318 320 319
319 320 321 322 323 324 324 325 325 325 324 322 320 317 316 316 315 315 315 315 315 315 318 318 318 316 315 316 319 319 321 317
319 318 320 321 322 323 324 324 324 324 324 324 323 322 322 320 318 317 316 316 316 316 317 319 318 319 320 320 321 322 322 319
319 319 319 319 320 321 323 323 324 324 324 324 324 324 323 322 320 319 318 318 318 316 316 317 318 318 320 320 322 322 323 322
319 319 318 319 320 320 321 321 321 322 322 322 323 323 323 323 323 322 321 320 319 318 319 319 320 321 322 322 322 322 322 318
319 320 320 319 319 319 321 320 321 321 320 321 322 322 322 323 323 323 323 323 322 322 322 322 323 323 323 323 323 323 321 319
318 318 318 320 320 320 320 321 321 321 321 320 321 322 322 323 323 324 323 323 323 323 324 324 324 324 322 321 321 319 318 316

GFSFLT1_850_thetae_054.txt.gz
Theta_e
325 323 322 324 325 324 325 325 323 322 321 320 319 319 318 319 316 316 317 316 315 313 313 313 316 317 314 314 314 313 313 313
325 324 320 322 323 324 324 325 323 323 322 321 321 320 318 316 316 315 318 315 314 315 316 314 316 319 319 318 318 314 314 312
325 325 323 321 321 323 324 323 324 323 322 321 320 320 319 318 317 316 319 317 315 317 318 317 317 320 319 319 320 319 318 315
326 325 324 322 323 322 323 323 323 323 322 322 322 321 319 317 316 318 317 320 317 319 317 319 318 318 318 318 319 320 320 318
327 326 325 324 323 324 322 323 323 322 322 322 321 321 319 318 317 317 319 321 319 319 317 317 317 318 319 320 318 318 320 320
328 326 326 325 323 323 322 321 322 323 322 322 322 320 319 318 318 317 320 319 320 317 317 317 318 320 319 320 317 317 322 322
328 327 326 326 324 323 322 321 321 322 323 322 319 319 318 318 318 317 318 319 320 317 316 317 318 320 318 317 318 317 318 321
328 328 327 326 325 323 322 320 320 321 322 323 321 320 316 319 321 319 318 319 318 318 318 319 319 319 318 318 318 317 319 320
327 328 327 327 325 324 319 321 322 320 322 323 321 321 320 320 320 320 318 316 316 317 317 316 316 317 317 317 316 315 315 314
326 327 327 327 326 325 324 318 321 322 321 322 322 322 322 322 320 319 317 316 316 316 316 316 315 316 317 316 315 315 317 319
324 326 327 327 327 325 325 322 320 322 322 322 322 322 322 323 322 320 318 317 316 316 315 318 318 317 315 315 315 315 318 319
324 325 327 327 327 326 325 324 322 321 322 322 322 322 322 322 322 321 321 318 317 317 316 316 317 316 315 317 318 318 318 317
323 326 327 326 327 326 326 325 324 323 322 321 321 322 322 321 320 320 320 319 319 318 317 317 317 318 318 319 319 318 320 320
320 324 326 327 326 326 326 326 325 324 323 322 320 319 319 318 317 317 319 319 320 320 319 319 318 318 319 317 317 317 319 317
320 320 323 326 326 326 326 326 325 325 324 323 322 320 319 317 316 317 317 316 317 317 317 318 318 317 317 317 317 317 318 315
320 320 320 322 325 326 326 326 325 324 324 323 324 324 323 320 319 317 316 316 316 316 317 317 318 319 318 320 320 319 319 320
319 320 320 319 320 324 326 326 324 324 324 324 323 323 323 323 323 321 320 319 318 318 318 319 319 319 317 317 318 317 317 320
318 318 320 320 319 319 318 320 326 324 323 323 323 323 323 323 323 322 322 321 321 321 321 320 321 321 320 318 317 319 321 323
319 319 318 319 319 318 317 321 324 325 322 323 323 322 322 322 322 322 321 321 321 322 321 321 322 321 321 322 323 322 323 322

GFSFLT1_850_thetae_057.txt.gz
Theta_e
327 326 325 327 326 327 326 325 324 323 323 323 323 322 321 319 313 318 320 319 316 315 316 317 317 317 317 318 318 318 317 317
327 327 325 326 327 326 324 324 323 322 322 322 321 320 320 315 317 317 315 315 313 314 315 312 317 318 318 317 317 317 317 316
328 328 326 326 326 324 325 325 324 323 322 322 321 320 319 314 314 316 314 315 314 314 313 313 316 319 319 320 318 318 316 315
329 328 328 325 326 324 324 324 324 323 322 321 321 321 318 316 315 315 316 317 318 315 316 318 315 319 322 322 322 321 320 318
329 329 328 327 326 326 324 323 324 323 323 322 321 321 319 317 315 315 317 317 316 315 318 320 320 319 321 323 323 322 322 321
329 329 329 328 327 326 323 323 324 324 324 323 321 321 320 318 317 316 316 318 316 317 319 321 322 321 321 322 322 322 322 320
329 329 329 329 327 327 324 322 323 324 323 322 322 321 321 319 316 317 318 319 319 319 321 321 320 321 321 321 321 321 321 321
329 329 329 329 328 327 325 324 322 323 323 323 322 322 322 321 320 319 317 319 320 320 320 321 320 318 317 319 320 320 321 319
328 330 330 329 329 327 326 324 323 322 322 323 323 322 322 321 320 319 318 317 317 318 320 321 319 318 318 318 318 321 318 318
327 328 330 330 329 328 327 325 324 323 323 322 323 323 322 321 320 319 319 318 317 317 318 319 319 317 317 318 319 320 320 319
325 327 328 330 330 329 328 326 324 324 324 324 323 323 323 321 320 321 320 319 317 318 316 318 318 317 318 318 318 318 318 319
324 325 327 329 330 330 329 327 325 324 325 324 322 323 323 323 323 321 322 322 320 320 319 318 318 318 319 319 318 318 319 318
323 325 327 328 330 330 329 328 326 325 324 325 324 324 324 324 323 324 323 323 322 321 320 320 319 319 319 320 320 320 320 320
322 323 327 329 329 329 330 329 327 327 325 325 324 324 324 324 323 324 324 324 323 322 322 322 320 320 320 320 320 320 320 320
320 321 322 326 328 329 329 330 329 328 327 325 325 323 321 321 322 322 323 324 324 323 323 322 321 321 321 321 320 321 321 320
320 321 321 322 324 328 329 329 329 329 328 327 326 325 323 324 324 324 323 323 322 322 322 322 322 321 321 321 320 319 320 320
320 321 320 320 321 322 327 328 329 329 329 328 327 326 326 325 325 324 323 323 323 322 322 322 322 321 321 320 320 320 320 319
319 320 321 321 321 321 322 325 328 329 329 328 328 327 326 326 325 325 324 323 323 323 322 322 321 321 321 320 320 320 320 321
319 320 319 319 320 321 321 321 323 327 328 328 328 327 327 326 326 325 325 324 323 323 322 322 322 322 321 321 321 320 320 320

GFSFLT1_850_thetae_060.txt.gz
Theta_e
328 327 327 329 327 329 327 326 325 324 324 323 322 324 325 324 322 321 319 317 323 323 322 322 322 322 321 320 319 318 318 318
329 328 326 329 328 328 326 326 325 324 323 323 324 322 322 322 320 316 320 320 321 322 319 318 319 320 319 319 319 318 318 317
329 328 327 327 327 326 324 325 324 323 322 323 323 323 322 320 319 316 321 319 320 320 317 317 317 317 317 318 317 318 317 317
329 329 328 327 327 325 325 324 324 324 321 322 322 322 320 319 318 313 314 318 317 316 314 313 314 317 317 318 317 317 317 316
330 329 329 327 327 326 324 326 324 324 322 321 322 321 320 317 313 314 318 315 314 313 314 313 312 313 314 319 320 318 318 317
330 330 329 329 327 327 324 327 324 324 322 322 322 321 320 317 317 315 316 316 316 315 315 316 314 315 318 322 322 320 320 321
329 330 330 330 328 328 325 325 326 323 323 322 322 321 320 317 315 316 315 315 316 315 314 316 321 319 317 322 322 321 320 321
329 330 330 330 329 327 325 324 325 326 323 323 322 321 321 320 317 314 314 316 317 316 317 315 317 319 321 320 321 320 320 320
327 330 330 330 329 328 328 325 324 326 324 323 323 322 321 321 321 318 314 315 317 318 317 316 316 322 320 321 319 318 318 319
326 329 330 330 330 328 328 325 324 322 324 322 322 322 322 321 321 320 317 315 316 318 317 316 317 319 320 320 317 317 317 319
326 327 330 330 330 330 328 327 324 324 322 321 322 322 323 322 322 322 321 320 317 317 317 316 319 320 321 320 318 317 317 317
323 326 327 330 331 330 330 328 326 325 324 322 323 324 324 323 323 322 322 321 321 320 318 318 318 320 321 320 320 319 318 318
323 323 327 328 330 331 330 329 327 325 325 325 322 320 324 323 323 323 322 321 321 320 319 318 318 317 317 317 319 319 319 319
321 322 326 328 329 330 331 330 330 327 326 326 325 323 321 321 322 323 322 322 322 322 320 320 320 319 318 317 318 319 319 319
321 321 322 322 327 329 330 331 330 330 327 326 326 325 323 319 320 322 323 323 323 323 323 323 322 321 322 321 321 321 320 320
320 321 321 322 322 322 327 330 331 331 329 327 326 326 326 325 325 323 323 323 324 325 325 324 324 323 322 321 321 321 321 321
320 320 321 320 320 320 321 322 329 330 331 330 328 327 327 327 327 327 327 326 325 326 326 325 325 324 323 323 323 322 322 322
319 319 319 319 319 320 320 320 321 324 330 330 330 329 328 327 327 327 326 326 327 326 325 326 325 325 324 324 323 323 322 322
317 316 316 317 319 320 320 320 320 321 322 328 330 330 330 329 328 327 326 326 326 326 326 325 324 324 324 323 323 323 322 322

GFSFLT1_850_thetae_063.txt.gz
Theta_e
328 327 327 327 329 327 326 327 326 329 325 327 325 325 324 326 325 324 323 320 319 319 320 321 320 322 320 322 320 318 319 319
328 327 327 327 328 327 326 326 327 325 327 327 327 326 326 326 325 324 323 320 320 324 322 322 321 322 321 322 320 318 319 319
328 327 327 326 326 326 324 326 325 324 323 323 322 321 322 323 325 324 322 323 323 323 322 321 322 323 322 321 319 318 319 318
328 328 327 326 326 326 322 323 325 323 323 321 322 323 323 322 323 323 322 320 323 323 319 321 321 320 320 319 318 319 318 318
329 328 328 327 326 326 322 324 325 323 323 322 323 322 321 321 321 320 320 316 321 321 319 319 319 318 319 318 318 317 313 318
329 329 328 328 326 326 324 323 324 323 322 321 321 323 322 321 319 321 321 318 319 320 320 318 314 315 316 318 317 314 313 317
329 329 329 329 327 326 325 321 324 323 323 321 321 322 321 320 319 316 316 316 317 316 316 313 313 314 317 317 313 314 316 317
329 329 329 329 329 327 326 324 323 323 322 322 321 321 321 321 320 317 316 317 316 315 315 313 314 313 315 316 316 316 317 320
330 330 330 329 329 329 327 326 320 321 322 322 322 321 321 321 320 318 315 314 315 314 314 314 314 316 317 316 319 321 319 321
330 330 330 330 330 330 329 327 325 321 322 322 322 321 321 321 320 319 315 314 314 315 317 316 315 315 319 320 320 319 320 321
330 330 330 330 330 330 329 328 327 321 322 322 322 321 321 321 321 320 318 315 315 315 315 316 317 317 315 316 319 320 319 320
327 330 330 330 330 330 329 329 328 326 321 322 322 322 322 321 322 321 321 321 320 317 315 315 316 316 317 316 316 318 318 319
321 322 327 330 330 330 329 329 329 329 326 323 321 323 323 323 323 322 321 321 321 321 318 316 316 316 316 317 317 318 319 319
320 321 321 325 329 330 330 330 330 329 328 326 324 324 321 322 323 323 322 322 322 322 322 320 319 317 316 318 316 317 319 320
320 320 320 320 320 322 328 329 329 329 329 327 326 325 324 323 321 324 325 323 322 322 322 322 321 321 320 320 317 317 318 318
319 318 319 318 318 319 320 321 322 329 329 328 328 327 326 325 325 323 321 323 323 322 322 322 321 321 320 319 319 319 319 319
317 318 317 317 317 317 318 319 320 322 328 329 329 328 327 326 326 326 325 323 321 322 323 322 322 322 322 321 321 320 320 320
315 315 314 313 313 313 314 316 317 318 321 322 328 328 328 328 327 326 326 326 325 323 323 323 323 323 323 323 323 323 322 322
312 312 312 311 310 311 312 314 316 317 318 320 321 327 328 328 328 327 327 327 327 327 326 325 325 324 325 325 325 324 323 323

GFSFLT1_850_thetae_066.txt.gz
Theta_e
329 328 327 329 328 328 324 325 327 327 326 325 325 326 326 327 326 325 322 324 323 323 324 316 313 311 316 317 316 316 318 319
329 328 327 329 328 327 324 325 328 327 326 325 326 326 326 326 325 324 322 321 322 322 323 318 314 317 320 321 320 319 320 319
329 328 327 328 327 327 324 323 328 326 327 325 326 326 326 326 326 326 322 320 322 320 319 320 317 315 319 321 320 319 320 319
328 327 327 327 327 326 323 319 326 327 327 325 326 326 325 324 324 326 323 322 320 320 318 321 319 321 319 321 320 319 318 319
329 327 327 327 327 326 322 320 325 326 325 324 322 321 321 321 322 324 323 321 319 320 322 323 320 321 321 322 321 318 318 319
329 328 328 327 327 326 323 320 323 323 322 324 322 321 322 322 323 322 323 321 320 323 323 323 321 322 323 322 320 319 317 318
329 328 328 327 327 326 324 321 321 324 322 322 321 321 322 322 322 322 322 322 320 321 321 322 321 320 319 319 316 319 318 318
327 327 328 327 327 326 325 323 319 322 323 320 321 321 321 322 322 322 322 322 320 320 319 319 320 320 318 318 318 318 318 315
328 328 328 328 328 327 326 324 321 320 323 321 320 320 322 322 322 321 321 321 317 317 320 320 319 317 315 315 316 316 314 315
328 328 328 329 328 328 328 326 323 320 320 321 321 320 321 321 321 320 320 319 319 318 318 317 317 315 313 314 316 317 315 314
328 329 329 329 329 329 328 328 326 324 319 319 322 321 321 321 320 320 320 320 317 316 316 316 316 315 313 314 313 314 315 318
328 328 329 328 328 329 329 328 328 327 324 319 319 322 321 321 321 321 321 320 318 317 316 315 314 314 314 314 314 315 315 317
325 328 328 328 328 327 328 327 328 328 327 323 319 319 320 321 321 320 320 320 320 317 315 315 315 315 316 314 314 314 316 317
320 324 325 327 327 328 328 327 327 327 326 325 324 321 319 319 320 321 322 322 321 320 318 315 315 315 315 315 316 316 316 316
318 318 318 319 320 322 323 324 324 325 327 327 326 325 324 322 321 319 319 321 322 321 320 321 320 320 318 316 315 315 316 316
315 314 314 313 314 315 317 319 321 325 326 326 326 326 326 325 324 323 322 320 319 321 322 323 322 321 321 321 319 317 316 317
313 311 311 310 310 311 313 314 316 319 321 323 325 325 326 326 325 325 324 324 323 321 319 322 324 322 322 322 322 321 321 320
311 310 310 309 308 308 310 312 314 315 317 319 322 324 324 324 325 325 326 326 325 324 324 323 323 321 320 321 322 322 321 321
310 309 309 309 309 310 309 308 309 310 312 314 316 318 320 322 322 323 324 325 326 326 326 326 325 325 325 323 321 322 322 322

GFSFLT1_850_thetae_072.txt.gz
Theta_e
327 327 328 328 328 328 327 326 323 325 326 325 326 326 325 325 326 324 326 325 325 326 326 324 323 317 323 322 320 319 320 320
325 328 329 328 329 328 327 326 322 325 325 326 326 325 328 326 326 327 327 325 325 325 325 325 319 314 315 317 319 319 319 321
322 326 329 328 328 328 328 326 321 326 327 326 326 325 328 325 328 326 327 325 326 325 324 325 317 312 314 316 317 317 319 320
320 323 326 328 328 328 328 326 322 324 328 326 325 324 325 326 326 326 327 324 324 322 324 324 316 311 310 313 317 317 319 320
319 323 325 327 328 328 328 326 323 321 329 324 324 324 325 325 325 325 327 326 325 324 322 322 321 312 310 309 313 313 319 320
319 320 322 326 327 328 328 326 324 320 328 324 324 324 324 325 324 324 326 326 326 325 322 319 324 320 311 307 307 311 319 320
321 323 325 326 327 328 328 326 325 319 322 325 323 323 323 324 324 324 323 325 324 325 324 324 322 322 314 308 308 311 319 318
318 323 325 326 327 328 327 327 326 318 319 323 324 323 322 322 322 322 321 322 324 323 324 324 322 323 318 311 316 315 314 318
318 321 323 326 327 328 327 327 326 320 317 321 324 323 322 321 318 320 320 320 320 322 324 323 322 321 321 318 312 318 316 317
318 322 324 325 327 327 327 327 326 322 318 318 320 321 322 320 320 320 320 320 321 322 323 323 323 322 322 320 319 316 318 318
321 324 325 325 326 327 327 327 326 323 321 318 318 320 321 321 320 319 319 320 321 322 323 323 323 321 321 321 321 320 320 319
324 325 325 326 325 325 326 326 326 324 323 320 319 319 319 320 320 320 320 322 321 322 322 322 321 320 320 321 322 321 319 318
324 324 325 325 325 326 326 326 326 325 325 324 322 321 319 318 320 320 321 320 320 321 323 321 321 320 319 319 319 320 320 320
316 319 319 323 323 324 325 325 325 325 325 324 324 324 323 321 319 319 320 321 320 320 320 321 322 321 319 319 318 319 319 319
311 314 315 320 322 322 322 323 323 323 324 324 324 325 325 324 322 321 320 319 319 320 320 320 319 319 320 319 318 318 319 319
306 309 311 314 316 317 319 321 322 323 322 321 322 322 323 323 323 323 323 321 321 320 319 319 319 319 319 320 320 319 317 317
302 304 305 308 309 311 314 316 318 320 319 320 320 320 321 321 321 321 321 321 322 323 323 322 322 322 321 320 319 319 320 320
300 301 303 304 305 305 306 307 307 310 314 316 318 318 319 319 320 320 320 320 320 320 320 320 320 321 321 321 322 321 321 320
305 303 302 303 304 305 305 305 304 304 305 306 307 308 310 313 316 318 318 319 320 319 320 319 319 319 319 320 320 320 320 320

GFSFLT1_850_thetae_075.txt.gz
Theta_e
318 318 327 330 329 328 327 327 325 326 326 326 326 327 327 326 326 327 327 327 326 327 326 325 323 324 325 325 322 321 321 321
318 318 324 330 329 328 328 327 326 325 326 326 326 325 326 325 324 327 326 327 326 326 326 325 324 324 323 324 322 321 320 320
319 318 321 328 328 328 328 327 327 326 322 325 328 326 324 324 325 327 324 326 327 327 327 326 324 325 322 324 322 320 320 320
317 317 318 326 327 328 328 327 327 324 323 325 325 328 325 325 325 326 325 326 326 326 326 324 322 324 319 322 322 320 319 320
317 316 318 322 327 328 328 327 327 324 324 326 324 326 324 324 326 326 326 324 325 326 325 325 324 324 317 317 321 321 319 319
317 316 318 324 327 328 328 328 327 325 323 325 325 325 324 324 327 325 327 325 324 323 322 321 324 322 315 312 313 317 318 318
317 316 318 322 326 328 328 328 327 325 322 323 323 322 324 324 326 324 326 326 325 325 323 322 321 322 314 311 312 315 317 317
318 320 320 323 324 326 328 328 327 325 322 323 323 322 323 323 323 323 325 324 323 324 325 323 321 322 319 312 311 310 313 315
316 320 322 323 324 326 328 328 327 325 320 321 322 322 322 322 322 322 321 321 321 323 324 324 324 321 321 322 313 309 308 308
315 320 323 324 324 326 327 328 327 325 320 320 320 321 321 321 320 319 320 320 320 320 323 324 324 323 322 322 316 310 309 311
316 322 323 324 324 328 327 327 326 324 320 318 320 320 321 320 320 318 319 319 320 319 320 321 323 324 323 322 321 315 312 315
323 324 324 324 324 324 327 326 326 324 322 319 318 318 320 320 320 319 319 319 319 320 321 321 322 322 324 323 321 321 317 313
322 322 323 322 322 322 326 324 325 324 324 322 320 319 319 319 319 320 320 319 320 320 321 319 321 322 323 323 320 320 321 320
315 319 319 321 321 321 321 323 324 324 324 324 324 323 322 320 319 319 320 320 320 320 320 321 321 321 321 321 321 320 319 320
307 312 315 317 318 320 320 322 323 323 324 323 323 323 324 323 322 320 320 319 319 320 320 320 320 320 321 320 320 319 318 318
303 304 307 311 315 317 319 321 323 325 323 323 322 322 323 323 322 322 322 322 321 320 320 319 319 319 319 318 318 318 318 318
299 301 302 304 307 310 314 318 319 320 320 320 320 320 321 321 322 322 322 322 322 321 321 321 321 320 320 319 319 319 319 319
300 301 301 302 302 304 307 308 310 315 316 318 318 317 318 318 319 320 320 320 320 320 320 320 320 320 320 320 320 320 319 318
301 301 302 299 299 301 302 304 306 308 309 309 310 311 313 315 316 316 317 317 317 318 318 318 318 318 319 319 319 319 319 320

GFSFLT1_850_thetae_078.txt.gz
Theta_e
319 323 329 332 334 335 331 328 327 326 324 324 326 325 326 326 327 327 327 327 327 328 326 326 325 325 319 324 325 324 324 323
319 321 328 331 334 335 330 328 328 326 324 325 327 327 327 327 326 327 327 328 328 326 326 327 326 325 322 324 325 325 324 324
318 321 328 330 333 334 330 328 328 327 325 325 327 325 327 326 325 325 325 326 326 328 326 327 326 325 322 323 324 324 323 323
318 321 328 330 332 333 330 329 328 327 326 324 325 323 327 325 325 326 326 326 324 327 327 326 326 325 323 324 324 324 323 323
319 320 326 329 331 333 332 331 329 328 327 323 323 326 326 325 325 325 324 324 324 325 326 326 325 325 325 322 323 323 322 323
320 321 323 328 331 332 332 331 328 328 327 324 324 325 326 325 325 325 326 324 324 325 325 326 325 323 324 322 323 323 322 322
320 321 324 327 331 332 331 329 327 328 327 322 325 324 324 325 325 325 326 326 323 325 325 325 322 321 322 324 321 322 322 322
322 324 326 328 331 330 328 328 327 327 326 324 323 325 323 323 324 325 325 325 325 323 323 323 323 324 324 324 318 318 321 321
321 325 326 328 330 329 328 327 327 327 325 325 323 323 323 324 323 324 324 325 324 324 323 324 321 321 322 321 316 314 313 316
323 324 327 328 329 329 327 327 327 327 325 323 322 322 323 323 322 322 322 322 321 321 322 324 324 323 321 322 315 312 311 313
324 326 328 328 327 327 327 326 326 326 323 320 325 322 322 322 322 322 321 320 320 320 320 322 324 324 324 322 322 320 318 313
325 326 327 326 323 323 324 325 324 326 321 324 324 323 321 321 320 320 320 320 320 320 320 321 322 323 324 322 321 321 322 317
321 324 323 322 322 322 322 326 325 322 322 322 321 320 321 320 320 320 319 319 320 320 320 321 322 322 322 323 323 322 322 321
311 318 317 319 321 321 322 322 322 324 324 322 321 322 319 319 320 320 320 320 319 320 320 321 321 321 321 322 322 322 322 321
304 309 310 315 318 319 320 321 322 322 321 322 322 322 322 321 321 319 319 320 320 320 321 321 320 320 320 321 322 322 321 320
299 303 305 306 312 316 318 320 320 321 322 322 323 323 322 322 321 320 320 320 320 320 320 319 321 321 320 320 320 320 320 319
296 297 301 303 303 308 311 315 317 318 319 321 321 321 322 321 321 322 321 321 321 320 320 320 321 320 319 319 319 319 319 319
296 295 297 298 299 301 304 309 311 312 316 316 315 318 319 318 319 319 319 319 319 320 320 320 320 319 319 319 320 319 319 319
296 294 294 296 299 300 300 304 305 307 308 309 307 311 316 315 314 315 316 317 316 316 316 316 316 316 317 318 318 318 316 316

GFSFLT1_850_thetae_084.txt.gz
Theta_e
320 320 318 318 322 327 338 340 340 336 336 332 325 320 322 324 327 329 330 331 330 329 330 330 328 325 325 325 327 327 326 326
320 319 318 319 323 334 338 339 339 336 336 330 324 322 322 322 328 329 330 329 329 329 330 329 327 326 326 325 327 325 326 324
320 320 319 322 327 333 337 339 339 336 335 327 326 325 323 322 321 327 326 327 328 329 328 328 327 327 325 325 325 325 326 323
321 320 319 324 329 335 338 339 337 336 333 331 329 328 328 330 329 328 326 326 328 327 327 326 329 327 326 326 325 323 323 324
321 321 319 326 327 337 338 340 337 336 333 331 329 326 323 324 326 327 327 327 328 327 327 327 327 324 326 326 325 321 322 324
320 321 320 327 327 334 338 339 337 335 333 332 329 326 324 324 327 327 327 327 327 326 328 327 325 325 326 326 326 323 322 323
319 321 320 326 330 335 337 338 336 334 333 332 330 328 328 326 328 327 329 327 326 326 324 324 325 324 323 325 325 321 320 323
328 328 321 321 330 334 336 337 336 334 333 333 331 329 329 327 327 328 327 325 325 325 324 324 325 324 325 324 322 321 321 321
323 325 326 324 332 335 337 337 335 334 333 332 331 329 326 327 327 326 326 325 326 325 323 323 324 325 324 325 325 320 321 321
318 323 328 326 331 335 336 336 335 334 334 332 330 328 326 327 327 327 325 325 324 325 324 324 323 325 324 324 324 321 320 319
313 320 329 331 333 335 336 335 334 334 332 331 329 328 326 326 325 326 327 325 325 325 324 324 324 324 324 324 323 320 320 321
313 317 324 329 331 333 333 332 332 331 331 330 328 326 325 325 325 325 324 323 323 323 323 323 323 323 323 322 323 322 321 321
308 313 318 325 326 328 329 329 330 330 329 328 326 325 324 324 323 323 322 324 322 322 322 322 322 322 322 322 322 323 323 323
307 309 312 316 321 325 327 327 327 327 327 325 323 323 323 323 322 322 321 321 320 321 321 322 321 322 323 322 323 322 322 321
304 304 305 307 313 319 324 326 325 325 325 323 322 322 322 322 321 321 320 320 320 320 321 322 322 322 322 322 322 322 322 322
300 302 301 303 306 309 317 319 323 323 322 322 322 323 322 322 323 322 321 321 321 320 320 320 321 322 321 321 321 321 321 321
297 299 301 299 300 302 305 310 317 319 322 321 320 320 319 320 320 321 321 321 320 321 320 320 320 320 320 321 321 321 321 321
296 296 297 298 297 298 300 303 306 311 314 316 317 318 319 320 320 319 320 319 319 320 320 320 320 320 320 320 320 320 321 321
294 295 298 298 296 297 297 300 302 304 305 306 307 311 311 311 314 316 315 317 318 317 317 317 317 318 319 320 320 319 318 318

GFSFLT1_850_thetae_087.txt.gz
Theta_e
318 318 318 319 319 318 328 337 339 337 338 336 327 325 322 325 326 325 324 332 332 331 331 330 330 329 328 327 326 326 327 328
318 319 319 319 319 318 328 338 339 337 336 336 328 330 325 322 322 327 324 328 330 331 330 330 329 329 328 327 325 325 325 327
316 319 319 320 319 323 329 337 338 337 335 335 328 330 324 322 320 320 322 327 329 330 328 329 329 329 326 325 325 326 327 325
316 318 319 320 319 325 333 337 337 338 337 335 331 329 326 323 321 321 319 327 327 327 328 328 328 328 326 325 325 326 326 325
316 318 319 321 325 328 335 336 338 337 337 334 330 329 327 326 322 317 324 326 327 327 328 328 327 327 325 326 325 326 325 324
318 317 318 321 332 335 334 335 338 337 335 332 331 330 328 325 323 326 327 327 327 327 327 327 327 326 327 326 326 325 325 324
325 325 324 325 331 335 335 335 336 336 334 332 332 330 326 323 323 325 326 327 327 327 326 326 327 326 326 325 325 325 325 323
323 325 325 324 333 337 336 337 335 336 335 334 332 330 326 324 324 326 327 326 327 327 326 326 324 325 324 325 326 325 323 321
320 324 328 327 327 333 338 336 336 335 335 333 332 330 328 327 325 326 326 326 326 325 325 324 324 324 325 325 325 325 322 322
318 322 326 331 329 335 334 335 335 335 333 333 331 330 329 327 326 326 325 325 325 326 325 323 323 324 324 324 324 324 324 321
316 319 322 327 331 332 332 334 333 333 333 331 330 329 329 325 325 325 325 325 325 325 324 324 323 323 324 324 325 324 322 321
310 315 320 322 327 329 329 330 330 333 333 331 330 328 325 325 324 324 325 325 325 324 325 324 324 324 324 324 324 324 322 322
306 312 316 321 323 327 330 331 332 333 333 331 329 327 324 324 324 324 323 323 322 323 323 324 323 323 323 324 323 323 322 321
303 310 312 314 318 323 327 329 329 330 330 329 327 325 323 324 323 322 322 322 321 321 322 322 322 323 322 323 322 322 321 321
300 304 306 308 311 317 322 325 327 326 328 327 325 324 324 323 322 322 322 321 320 321 321 322 321 321 322 322 322 323 322 322
296 299 301 305 306 309 313 317 321 324 324 324 323 322 322 323 323 322 321 320 319 320 321 322 322 321 322 322 322 322 322 321
295 296 298 301 303 303 306 309 314 316 322 322 322 320 321 320 320 321 319 319 319 319 320 320 321 321 322 321 321 321 321 321
295 295 295 297 300 301 302 304 306 310 312 316 318 320 321 320 320 321 321 321 321 319 319 320 320 320 320 320 321 321 321 321
294 294 294 295 298 300 301 301 303 304 305 306 308 314 316 316 317 317 316 317 317 317 316 318 319 319 319 319 320 320 319 319

GFSFLT1_850_thetae_090.txt.gz
Theta_e
315 314 316 317 317 317 317 320 322 330 334 338 336 332 326 331 333 333 333 331 329 330 330 330 331 331 330 329 327 327 327 327
315 316 314 316 317 317 317 319 321 330 333 337 335 334 325 328 338 335 332 329 323 331 331 330 330 330 330 329 328 328 327 326
315 315 315 315 319 318 318 319 320 326 330 336 337 334 325 322 325 332 329 327 328 328 330 330 330 329 329 328 328 327 325 326
317 315 317 316 317 319 318 318 319 327 330 334 336 333 329 325 324 327 328 329 326 327 328 330 329 329 329 328 328 327 325 326
314 314 315 315 316 319 319 319 320 326 332 336 336 334 329 326 323 323 323 326 327 327 328 329 328 328 328 328 327 326 325 325
318 320 319 317 318 319 321 322 322 327 336 336 336 334 330 326 323 322 322 321 323 327 327 327 327 328 327 327 325 325 325 326
316 319 323 323 323 333 330 329 326 334 335 337 336 334 330 326 326 324 320 325 325 326 326 328 328 327 327 326 325 326 326 325
315 315 324 325 333 337 336 334 334 334 335 335 335 333 328 326 326 324 322 326 326 326 327 327 326 326 327 326 326 326 325 325
312 312 320 326 328 335 328 331 334 334 336 335 334 331 330 327 324 322 324 325 325 325 326 326 328 327 326 325 325 325 326 323
307 314 320 323 327 333 333 330 329 332 335 334 333 332 330 326 326 323 325 325 325 325 326 326 325 323 324 325 326 325 325 324
307 311 317 319 324 330 335 332 333 331 331 332 332 331 329 328 327 324 325 324 324 324 325 325 324 323 323 324 324 325 325 325
304 308 312 317 320 326 329 330 330 330 329 330 332 330 329 328 326 325 324 324 324 324 325 324 324 323 323 324 324 324 324 324
301 305 309 314 318 323 327 323 328 328 328 329 330 329 328 325 324 324 324 323 323 324 324 325 324 323 324 324 324 324 324 323
300 303 306 309 314 318 322 322 325 324 324 330 329 328 326 325 324 323 324 324 322 321 322 323 323 323 323 323 323 323 323 323
297 298 301 303 306 312 318 321 325 326 325 329 329 326 324 324 324 324 323 322 322 321 321 322 322 323 323 323 323 322 323 323
295 295 297 299 302 305 309 315 319 323 325 325 326 325 324 324 323 323 322 322 320 319 320 321 321 321 321 322 322 322 322 321
294 295 297 298 299 301 304 308 312 316 321 323 324 324 323 322 322 322 321 320 319 319 320 322 322 320 321 322 322 322 322 321
294 294 295 296 297 299 301 303 306 310 311 313 320 322 322 322 322 322 321 320 319 319 320 321 321 322 321 321 321 321 321 321
293 294 295 295 297 298 299 301 304 305 304 306 310 314 316 317 318 319 320 319 318 318 318 318 319 320 320 320 320 320 320 320

GFSFLT1_850_thetae_093.txt.gz
Theta_e
314 314 315 315 315 315 315 315 317 322 328 332 335 339 334 330 328 326 330 332 332 332 331 328 331 331 331 329 327 327 327 327
315 316 314 314 315 315 314 316 316 319 325 327 335 335 337 332 331 327 329 332 333 331 330 326 328 332 331 330 328 328 327 326
319 318 318 316 316 316 315 316 316 316 318 323 330 330 336 335 329 329 331 334 333 331 330 328 329 330 331 331 330 329 328 327
316 318 316 315 315 314 315 316 317 317 319 327 332 335 334 332 332 329 336 333 332 328 326 327 329 329 330 330 330 329 327 328
314 319 320 317 316 315 314 316 318 319 322 321 326 331 331 330 332 328 326 330 330 329 328 325 327 329 329 329 329 328 328 327
314 317 319 320 321 318 316 316 318 321 319 321 327 334 330 330 329 325 325 327 328 330 325 325 326 329 328 328 328 328 327 327
313 318 320 320 324 328 321 321 321 322 324 323 331 333 331 331 330 325 326 325 325 327 325 324 327 329 326 328 329 327 329 327
308 316 319 318 321 332 334 331 328 327 331 331 333 332 333 332 330 324 323 323 322 321 322 326 327 325 325 326 328 329 327 326
306 313 313 315 319 324 333 337 334 332 333 333 333 334 334 332 330 324 323 321 319 321 325 325 325 325 325 325 324 326 326 325
304 308 309 313 318 322 330 336 334 334 332 331 330 331 331 332 327 326 323 319 321 325 325 325 325 325 324 323 323 326 326 326
303 305 308 312 315 321 328 334 332 331 327 329 329 328 331 329 327 324 322 322 324 324 324 324 324 324 327 326 325 324 324 324
301 303 305 308 313 319 325 328 330 328 326 327 328 327 330 329 325 324 323 323 324 324 323 324 325 324 324 323 323 324 324 325
299 301 303 305 309 314 319 324 327 327 327 327 327 328 329 327 327 325 324 324 324 323 324 324 325 324 323 323 322 323 324 324
296 299 303 303 305 309 313 320 324 323 323 326 327 328 328 327 325 324 324 323 323 323 323 324 324 324 323 323 322 323 324 324
295 296 299 302 304 306 310 315 319 320 323 321 326 328 328 326 325 325 324 324 323 322 321 321 321 323 323 322 323 323 323 323
293 294 296 298 302 305 306 309 315 319 320 321 322 327 326 325 324 323 323 323 321 321 321 320 321 321 322 322 322 322 322 322
294 293 294 296 298 301 303 304 306 310 312 317 321 321 325 324 324 324 323 321 322 320 319 319 321 320 321 321 321 322 322 322
293 293 293 294 296 298 300 302 304 307 306 310 315 318 322 324 324 323 322 322 321 319 318 318 319 320 320 320 321 321 322 322
292 293 294 295 295 297 299 301 303 304 305 305 305 304 309 319 319 320 320 320 319 318 318 318 319 320 321 320 320 320 320 320

GFSFLT1_850_thetae_096.txt.gz
Theta_e
314 314 315 315 314 314 314 314 314 314 315 331 330 331 332 334 332 328 325 327 328 330 330 332 332 331 331 331 330 328 327 327
318 317 315 316 316 315 315 314 314 314 316 327 330 333 333 333 334 330 327 329 329 329 330 331 332 331 331 332 330 327 328 327
315 317 319 318 317 316 316 315 314 314 314 316 328 325 331 330 336 333 329 328 331 330 330 330 330 328 332 332 330 328 328 327
314 315 317 319 321 317 315 314 313 313 315 317 320 327 331 330 331 332 332 329 329 331 332 330 329 328 328 329 329 328 327 328
312 314 316 317 321 320 317 315 314 314 317 318 320 321 326 323 327 330 330 330 329 330 334 331 328 325 327 327 329 327 327 328
311 311 313 315 318 320 320 319 315 317 318 319 318 320 321 325 331 328 321 327 330 332 333 327 326 325 327 327 328 326 325 327
310 310 310 314 317 319 322 325 317 319 322 321 320 320 324 332 331 330 328 329 330 333 333 327 327 324 325 326 327 324 325 325
309 308 307 310 317 318 322 329 328 328 328 327 323 327 327 331 331 328 331 332 329 334 332 332 326 324 325 325 327 326 325 325
311 307 306 306 313 316 320 326 332 335 337 334 333 332 332 331 332 330 330 329 326 326 328 326 325 323 324 326 324 324 325 323
306 307 306 307 310 314 317 323 329 333 333 332 332 334 332 332 331 330 330 328 324 324 324 322 323 325 325 324 325 325 324 324
303 303 303 306 308 313 316 321 328 331 333 332 332 333 332 331 328 329 328 324 323 321 322 325 324 324 324 324 324 323 323 323
299 300 302 304 306 309 313 319 326 329 331 328 330 330 328 327 327 328 325 324 321 323 324 323 323 323 323 324 323 322 323 323
299 298 300 304 304 307 309 316 320 325 329 327 326 323 325 322 328 327 324 322 323 323 323 323 323 324 324 324 324 323 322 323
299 298 298 300 302 305 306 309 316 321 323 325 326 326 325 326 328 324 323 323 324 324 323 323 323 324 324 323 322 322 323 323
298 298 297 298 299 301 303 306 312 316 321 323 323 325 325 327 325 325 324 324 324 324 324 323 323 323 321 322 322 323 323 322
295 296 296 297 298 299 301 302 306 309 315 321 322 324 323 325 326 325 325 325 323 322 321 321 320 320 321 321 322 321 322 322
293 295 295 295 296 297 299 301 304 306 309 311 313 319 319 321 324 325 325 324 323 322 321 320 319 317 321 321 321 322 322 321
292 293 293 294 295 295 296 298 302 305 306 306 306 311 314 315 318 323 325 323 321 321 319 318 318 318 319 321 319 320 321 321
291 291 293 293 295 296 296 298 298 301 303 305 307 307 307 313 302 314 319 320 321 320 318 317 318 318 318 321 320 319 319 320

GFSFLT1_850_thetae_099.txt.gz
Theta_e
317 317 317 317 317 314 313 313 314 314 314 313 314 322 334 334 329 331 328 327 323 324 327 329 329 330 330 330 330 328 327 327
315 315 315 315 316 318 316 314 314 314 314 313 314 316 320 333 331 330 331 329 326 325 326 330 329 330 330 330 330 328 328 328
315 314 315 315 316 317 319 318 315 315 314 314 313 315 316 334 333 332 333 331 329 327 327 329 329 330 330 329 331 330 328 328
313 314 314 314 315 316 317 320 317 315 313 325 327 329 333 336 331 329 332 332 331 329 331 330 329 329 329 331 328 330 330 327
311 309 310 313 314 314 315 319 320 316 314 324 329 330 333 329 327 327 329 331 331 330 331 330 330 330 329 331 326 327 328 327
309 307 306 308 313 315 316 317 320 319 319 317 328 327 328 331 330 325 326 327 328 329 322 329 329 330 330 329 327 327 327 327
307 305 305 309 314 315 315 316 319 322 324 317 328 328 329 331 328 326 329 328 326 326 323 325 331 331 328 326 324 326 326 326
303 302 304 309 310 312 314 316 319 324 325 324 330 332 331 330 328 328 330 324 321 323 324 329 331 331 326 325 325 327 326 326
301 301 299 304 307 309 312 315 318 324 329 329 330 331 332 332 332 331 330 325 324 324 325 330 331 330 327 325 324 326 326 326
300 299 299 304 306 307 308 312 318 324 328 331 331 330 330 331 332 332 330 326 326 324 327 330 330 330 329 324 325 326 325 325
298 298 298 305 304 306 310 312 315 323 328 331 330 330 329 328 331 330 330 329 328 328 328 329 331 331 328 324 323 326 325 326
297 298 299 302 303 304 307 311 316 322 325 328 330 329 330 330 331 331 329 325 322 324 328 331 328 323 324 325 325 325 325 324
296 300 300 300 301 304 306 309 313 314 324 325 327 329 329 329 328 328 325 320 322 326 324 323 323 323 323 324 324 324 324 324
296 299 298 298 298 300 303 305 309 313 322 325 327 327 325 326 324 324 325 325 324 323 324 323 323 322 322 323 324 324 323 323
294 297 296 297 296 298 300 302 306 310 314 320 322 325 325 325 326 325 325 324 323 325 323 322 322 322 324 323 323 322 322 323
293 294 294 295 296 297 300 301 304 305 310 313 317 319 321 324 325 326 325 323 324 324 322 322 323 323 322 324 323 322 322 322
291 292 293 294 295 296 297 298 299 301 304 308 309 314 316 318 323 321 323 325 325 322 323 324 321 320 320 320 321 320 322 322
290 291 291 293 294 295 296 296 298 299 301 303 305 305 308 310 314 319 320 316 324 323 321 321 319 318 318 320 320 320 320 321
290 291 291 292 293 295 295 296 296 297 298 298 300 302 303 305 306 304 306 307 314 320 319 318 318 317 318 319 319 319 320 320

GFSFLT1_850_thetae_102.txt.gz
Theta_e
318 318 318 317 317 316 316 316 314 313 314 320 331 332 319 328 334 335 332 329 324 326 326 324 326 330 331 330 333 333 335 333
317 317 317 317 317 316 316 315 316 317 316 318 327 332 327 316 330 334 333 332 328 326 326 325 327 329 329 329 330 332 333 331
317 316 316 316 315 315 315 315 316 317 318 319 323 330 331 331 332 334 327 334 329 329 329 325 327 329 330 331 330 330 332 329
315 314 314 313 313 313 312 313 313 317 317 318 319 328 331 333 331 328 318 333 331 330 330 327 329 330 331 331 330 331 329 329
314 313 312 311 311 310 314 315 315 317 317 316 320 323 330 331 330 324 322 329 334 332 331 330 329 331 331 331 331 329 330 329
312 310 309 308 308 311 314 315 316 316 317 317 317 322 330 331 332 332 336 331 331 332 330 325 329 328 329 330 330 329 327 328
310 309 308 307 307 307 311 315 316 316 318 319 320 321 327 332 332 332 333 335 332 330 331 331 330 327 323 325 327 329 327 326
309 307 306 306 305 306 311 314 314 316 318 320 323 323 325 333 332 333 332 336 330 330 328 330 329 327 321 322 325 330 328 326
307 305 304 304 303 302 310 314 314 317 318 322 325 326 327 332 331 332 331 334 336 333 329 326 329 322 323 323 328 331 327 324
305 304 303 302 302 305 307 311 312 313 318 323 328 330 333 332 330 329 331 332 333 329 329 327 323 323 323 327 329 329 326 326
303 302 301 301 300 304 307 309 308 313 318 323 330 330 330 330 330 331 330 330 330 328 325 323 323 325 328 329 329 327 325 327
301 301 300 299 299 302 305 309 310 313 316 323 326 326 327 328 329 329 330 330 330 328 323 326 327 329 328 329 329 328 324 324
300 300 299 298 298 301 304 305 308 309 311 316 323 325 326 328 329 328 329 329 329 327 326 323 322 327 329 328 328 326 324 325
299 299 298 297 296 298 304 304 305 306 308 314 319 323 324 325 326 326 329 327 327 323 322 322 321 326 325 324 324 325 325 325
297 297 297 296 295 295 300 302 301 302 302 309 314 320 323 325 325 324 326 324 321 323 322 320 323 323 324 325 324 324 324 324
295 295 295 295 294 296 297 299 299 298 302 309 311 315 320 318 324 324 324 325 325 324 323 324 323 323 323 323 323 323 323 323
294 293 293 292 292 295 296 296 297 298 300 300 302 308 311 315 316 322 323 324 324 324 325 322 322 322 323 323 323 322 321 321
291 291 290 290 293 293 294 295 295 297 298 299 300 302 303 307 309 312 309 316 317 320 324 322 322 322 323 322 320 320 320 321
289 288 289 291 292 293 293 294 295 295 296 297 299 300 302 303 303 304 304 305 308 308 315 321 321 321 319 319 320 319 319 319

GFSFLT1_850_thetae_105.txt.gz
Theta_e
320 319 319 320 320 320 320 320 320 322 322 319 316 325 331 334 336 338 340 338 333 331 330 326 327 330 333 331 335 333 335 333
318 319 319 319 319 319 319 319 319 319 320 322 322 321 325 331 334 335 338 340 339 337 335 335 327 326 331 330 336 337 333 333
318 318 317 317 317 317 317 317 317 317 318 319 321 322 322 327 331 333 335 338 339 337 336 335 327 326 331 330 337 333 334 333
317 317 316 316 315 314 314 314 315 316 316 317 318 321 321 323 332 333 333 336 336 332 331 335 328 327 328 327 333 329 331 330
316 315 315 314 313 312 312 311 313 313 313 314 315 318 322 320 324 332 333 333 336 337 334 336 332 329 328 326 329 333 331 328
315 314 313 312 312 311 310 309 309 310 309 314 315 315 318 323 323 330 330 333 333 337 335 335 331 332 328 330 333 332 331 329
314 312 311 311 310 309 308 307 307 307 314 316 316 317 317 321 323 329 332 333 332 332 334 335 333 331 329 328 322 329 330 329
312 310 309 308 308 307 306 304 305 310 314 315 315 315 318 318 322 327 332 332 332 331 332 334 332 331 327 320 320 327 331 331
310 309 308 306 306 305 303 302 308 310 312 316 316 318 320 321 321 325 331 333 331 331 332 331 331 331 327 323 321 331 330 330
309 307 306 305 304 303 301 301 304 310 311 316 317 322 323 325 326 327 331 333 332 331 333 332 333 334 332 329 329 328 327 329
307 306 305 304 303 302 300 299 303 308 311 314 318 325 328 330 329 329 332 331 332 331 331 331 332 330 327 328 326 327 330 330
306 305 304 303 302 301 299 298 302 307 312 314 319 324 327 328 328 329 331 331 331 332 332 332 330 328 327 322 321 322 328 331
304 304 303 302 300 299 298 298 301 303 306 312 316 318 322 326 327 329 329 330 329 331 330 329 329 328 324 322 323 322 324 329
302 302 301 300 298 298 297 298 301 302 305 308 314 313 317 322 326 328 328 328 329 330 329 328 326 325 325 323 322 318 324 327
300 299 299 298 297 296 295 294 298 301 303 304 311 310 310 317 319 322 327 328 328 327 328 328 326 325 325 323 324 327 327 325
297 297 296 295 295 294 294 292 295 298 300 301 302 302 306 310 316 317 323 325 325 325 325 326 325 327 324 321 323 323 324 325
295 294 294 293 292 292 292 291 293 296 298 299 299 301 304 308 308 313 319 316 322 323 323 324 326 324 324 322 323 327 325 324
292 292 291 290 290 291 290 290 292 295 297 297 297 299 300 302 302 306 312 310 315 319 320 322 323 324 324 324 323 323 323 323
289 290 289 290 290 289 289 289 292 294 295 295 295 296 297 298 299 300 301 302 303 305 306 310 313 322 323 323 323 322 322 321

GFSFLT1_850_thetae_108.txt.gz
Theta_e
321 320 320 320 321 320 320 320 320 320 319 319 318 316 319 333 336 340 339 339 339 338 335 339 334 334 332 337 336 333 335 335
320 320 320 320 319 319 318 317 317 317 318 319 320 322 323 323 328 333 340 339 338 339 339 337 339 339 331 333 333 332 334 335
319 319 318 318 317 316 315 315 314 316 317 318 318 318 319 323 323 330 335 333 336 336 339 337 337 337 335 331 328 330 334 331
318 317 317 316 315 314 314 313 313 314 315 316 316 317 317 318 318 323 332 335 332 336 337 337 338 332 327 334 332 329 328 332
317 316 315 314 313 312 312 311 311 312 313 314 314 314 314 317 321 324 321 334 335 332 330 333 337 332 333 329 333 333 329 331
316 314 313 312 311 311 310 309 310 312 313 314 315 315 315 316 317 320 323 326 334 331 332 332 334 332 330 322 332 332 332 329
314 312 311 310 309 308 307 308 310 310 310 313 313 315 317 317 317 318 319 323 325 333 328 330 334 334 332 331 327 327 333 328
312 310 309 308 307 306 305 306 307 305 308 311 312 313 313 315 317 317 320 320 324 328 327 329 333 333 331 330 328 331 329 326
310 309 308 307 305 304 303 303 304 304 307 309 312 312 311 313 317 319 320 321 322 323 323 329 330 331 333 331 331 331 325 321
308 307 306 305 304 303 301 301 302 303 305 306 311 313 313 315 319 320 323 323 321 329 331 331 331 329 329 332 330 329 327 319
306 306 305 304 302 301 300 298 300 302 304 305 308 312 314 316 322 324 328 325 327 329 330 332 331 330 329 331 329 328 324 327
305 304 304 302 300 299 298 297 300 301 302 304 307 310 316 316 321 324 328 328 327 329 331 331 331 330 330 331 330 331 330 328
303 303 302 300 298 297 296 296 298 299 300 302 305 308 312 315 319 322 324 326 325 328 330 329 331 331 330 329 330 330 328 327
301 300 299 298 297 296 295 294 296 298 300 301 302 306 310 312 316 320 322 324 322 326 326 327 327 327 329 328 329 326 324 321
298 297 296 295 295 294 294 293 295 296 298 299 300 302 305 307 311 315 316 321 324 327 327 327 323 327 328 328 327 322 322 322
296 295 294 293 292 292 292 292 294 295 296 296 297 300 302 304 305 307 311 316 318 321 327 326 327 327 327 326 326 325 323 322
294 293 292 291 290 291 291 291 292 293 294 294 296 298 300 301 301 303 305 310 315 310 318 325 323 326 326 325 325 324 325 322
291 291 290 289 289 290 289 289 291 292 292 293 295 295 297 297 298 300 300 302 304 310 308 314 320 321 324 325 325 325 326 324
289 289 289 289 289 290 290 290 291 291 291 292 293 294 294 295 296 296 297 297 299 301 303 302 304 307 318 321 324 324 323 324

GFSFLT1_850_thetae_111.txt.gz
Theta_e
320 320 320 320 320 320 320 319 319 319 317 315 314 314 318 335 337 338 339 338 338 338 338 339 339 340 341 340 339 338 338 335
320 320 320 320 320 319 317 316 315 314 315 316 316 315 315 315 317 329 335 336 335 335 338 339 338 336 340 340 338 338 337 336
319 319 318 317 316 315 314 313 313 313 314 315 315 316 317 316 315 318 320 327 333 336 335 336 338 338 333 335 336 334 338 335
317 316 315 315 314 314 313 312 311 311 312 314 315 316 316 317 317 317 316 322 330 331 333 334 335 337 337 334 336 334 336 335
315 314 313 312 312 312 311 310 310 311 312 314 315 316 317 317 317 318 318 317 320 324 325 331 331 333 333 332 332 331 325 322
312 312 311 311 311 309 308 308 309 311 312 313 314 315 316 317 317 317 318 318 318 320 323 329 332 330 328 329 331 330 324 324
310 310 310 308 307 306 305 306 308 310 311 312 312 313 315 317 318 317 317 318 319 318 320 324 330 330 328 325 327 330 323 322
308 308 307 306 305 304 304 305 306 308 310 311 310 312 314 315 317 318 317 317 319 320 319 321 327 330 328 328 325 327 328 326
307 306 305 304 303 302 302 303 304 305 307 309 309 310 313 314 315 316 315 317 319 322 321 319 323 324 322 322 325 326 328 327
305 304 304 303 301 301 300 300 302 303 306 307 308 309 310 313 314 314 314 318 320 324 323 320 321 322 320 322 327 326 328 328
304 302 302 301 299 298 299 299 300 300 303 306 306 307 308 309 312 314 315 319 321 323 324 321 323 323 323 326 326 327 329 328
301 300 299 298 297 296 295 297 298 299 301 303 305 306 307 308 310 312 314 317 319 324 326 327 324 324 325 325 326 328 328 328
298 297 297 295 295 294 294 294 296 298 299 301 302 302 303 306 306 310 313 316 319 321 325 326 326 325 324 325 326 328 327 328
296 295 294 294 293 293 293 294 296 297 298 299 300 300 301 302 304 308 310 313 318 321 322 321 323 325 325 326 330 329 328 328
294 293 292 292 292 292 292 293 295 296 297 297 297 298 298 299 302 304 307 309 314 319 321 323 321 323 325 326 327 328 329 329
293 292 291 290 290 291 291 292 294 294 295 295 295 294 295 297 299 301 303 305 307 310 313 315 319 323 321 320 324 326 326 327
291 291 289 289 289 290 291 292 292 293 293 293 293 293 293 294 296 298 300 301 301 303 306 311 315 316 322 321 320 326 326 325
289 289 289 288 289 289 290 291 291 292 292 292 292 292 292 292 293 295 295 296 297 299 300 303 306 312 317 320 323 324 325 323
288 288 288 289 289 289 290 291 290 291 291 291 291 292 293 292 293 293 293 292 293 296 296 298 301 302 305 315 309 321 317 320

GFSFLT1_850_thetae_114.txt.gz
Theta_e
320 320 320 320 320 320 320 319 318 317 314 314 314 314 315 322 329 335 336 337 336 336 337 338 336 336 337 337 340 340 339 338
318 319 319 319 319 319 318 315 313 313 313 313 313 313 314 314 315 319 327 333 335 336 336 337 338 337 336 336 335 337 339 338
317 317 318 317 315 314 313 312 312 312 312 312 312 313 313 314 315 314 314 318 325 330 331 334 335 336 336 335 334 334 333 333
314 315 315 314 313 312 312 311 311 311 311 312 313 313 314 315 316 316 316 316 315 319 324 328 328 333 334 335 334 333 332 331
313 312 312 311 310 310 309 309 310 310 311 312 313 314 314 314 315 316 317 317 317 317 316 321 325 325 329 332 333 330 330 333
308 309 310 307 306 305 305 306 306 307 309 310 311 312 313 314 314 316 317 318 318 318 318 317 318 322 324 331 331 332 330 332
307 306 306 305 304 304 304 305 306 307 308 309 310 311 311 313 314 316 318 318 319 318 319 319 318 318 320 326 331 331 330 328
304 304 303 303 303 304 304 305 306 306 307 308 309 309 309 311 313 315 316 317 319 320 320 321 321 319 318 323 328 330 330 329
302 302 301 300 301 302 303 303 305 305 306 306 307 308 309 309 310 312 314 315 317 319 320 320 322 323 319 320 325 328 330 328
300 300 300 300 300 299 299 302 303 304 304 305 306 307 308 308 309 309 312 315 316 317 319 320 322 322 322 319 324 324 327 325
299 298 298 298 297 298 298 298 299 299 301 302 303 305 305 307 307 308 309 313 315 316 317 319 321 323 324 320 322 321 321 322
296 296 296 295 295 295 296 298 299 300 300 301 302 302 302 304 306 307 308 311 313 315 315 317 319 321 327 321 323 322 320 322
296 295 295 294 293 294 295 296 298 298 300 299 298 299 301 302 303 305 306 308 310 311 314 316 320 321 326 326 323 323 323 323
293 292 292 292 292 292 293 295 296 297 297 297 297 297 298 299 300 302 304 305 306 308 311 314 317 321 322 324 325 324 321 323
292 291 290 290 290 291 292 293 294 295 295 295 296 295 295 296 297 299 300 301 302 305 307 309 312 315 320 322 323 323 323 324
291 289 289 289 288 290 291 292 292 293 294 294 294 294 294 295 295 295 296 298 298 300 302 304 309 310 313 321 321 320 318 317
290 288 288 289 288 290 291 291 292 292 293 293 293 294 294 294 294 294 294 296 297 296 298 299 302 306 308 315 317 319 319 321
288 288 288 288 288 289 290 291 291 292 292 292 292 293 293 294 294 293 292 293 294 293 294 294 295 298 302 307 310 318 319 319
288 288 288 288 288 289 289 290 291 291 292 292 292 292 292 293 294 294 293 292 292 291 292 292 292 294 298 301 303 306 310 314

GFSFLT1_850_thetae_117.txt.gz
Theta_e
317 320 320 320 320 321 321 321 320 320 319 318 315 314 315 317 321 324 327 330 331 331 332 335 337 338 336 333 332 331 327 333
318 318 317 316 315 316 317 316 315 313 312 312 312 312 312 313 313 314 315 319 326 330 332 333 334 334 336 336 335 331 328 334
314 314 314 313 312 312 312 312 312 311 311 311 312 312 312 312 312 313 314 314 314 315 321 328 330 331 334 334 336 337 336 335
312 311 311 310 309 309 310 310 311 311 311 311 311 311 312 313 313 313 314 315 316 316 315 315 318 324 326 329 335 337 335 335
306 305 306 306 303 305 306 306 306 306 306 306 306 306 309 310 311 312 313 314 316 317 317 317 316 315 317 322 326 330 333 334
303 303 302 303 303 302 304 305 306 306 306 306 306 307 308 309 311 312 313 313 316 317 318 318 318 318 317 316 318 323 328 330
301 300 302 302 303 302 303 304 305 305 306 306 307 308 309 310 311 311 312 313 313 316 318 319 319 319 319 318 317 318 322 327
299 298 298 299 301 302 301 303 303 304 305 306 307 308 308 309 310 311 311 312 313 314 316 317 319 317 318 320 320 317 319 327
300 298 296 297 296 297 299 300 302 303 304 304 305 305 306 307 309 309 310 310 311 313 314 315 316 318 318 319 322 321 318 325
300 300 299 296 297 297 299 299 300 302 302 302 302 303 304 305 306 307 308 308 310 311 313 314 315 314 317 317 319 322 320 321
298 298 298 298 298 298 299 298 299 300 300 300 300 300 301 302 303 305 307 307 308 310 312 313 314 315 316 317 319 322 323 320
296 295 294 294 294 295 295 296 297 298 298 298 298 299 299 300 301 302 304 305 306 308 309 311 311 313 315 318 320 322 323 320
294 293 292 291 292 294 294 296 296 296 296 297 298 298 297 298 299 300 302 302 303 303 306 308 311 312 313 316 320 322 323 321
292 291 290 290 291 292 293 294 294 295 295 295 296 296 296 296 296 297 298 300 300 300 302 304 308 311 312 314 317 322 324 325
291 289 290 291 292 293 293 293 293 294 295 295 295 294 294 295 295 295 296 297 297 298 299 300 302 305 308 312 316 318 322 324
290 289 289 289 288 289 291 292 293 293 294 294 294 294 294 294 294 294 295 296 296 296 296 296 297 299 300 306 311 314 318 319
289 288 288 288 288 289 290 291 292 292 293 293 292 293 294 293 294 294 294 295 295 296 296 294 294 295 297 300 305 305 308 313
288 288 288 288 287 289 289 289 290 291 291 291 291 292 292 292 293 293 294 294 294 295 295 295 293 293 295 298 300 299 300 302
288 288 288 288 288 288 288 288 289 289 288 288 288 289 289 289 291 291 291 291 292 293 294 294 294 294 295 295 297 296 297 297

GFSFLT1_850_thetae_120.txt.gz
Theta_e
315 317 318 318 318 319 320 320 320 319 320 320 320 319 318 317 318 322 324 325 327 330 329 330 331 332 334 336 336 335 335 332
314 314 314 314 314 314 314 315 315 314 314 313 313 313 312 312 312 313 313 314 315 317 322 326 327 328 329 332 333 334 334 332
310 309 309 310 309 309 310 310 311 310 311 311 311 311 311 311 311 312 312 313 313 314 314 314 315 318 324 327 331 334 334 336
306 305 303 303 304 305 305 306 308 308 309 310 310 310 311 311 311 311 312 312 313 313 314 315 315 314 314 316 323 326 331 331
301 302 301 301 301 302 303 304 305 304 305 306 307 306 306 306 306 306 309 311 312 313 315 316 317 316 316 316 315 317 323 329
299 299 299 299 299 301 302 303 306 304 304 304 306 306 306 307 307 308 308 310 312 313 313 316 318 318 318 318 317 317 316 320
301 301 300 299 299 301 302 302 303 304 305 304 305 306 307 307 308 309 309 310 311 312 313 314 316 317 318 317 317 318 318 316
303 302 303 302 301 301 302 302 302 302 303 303 303 304 306 306 307 308 309 310 311 312 312 313 313 315 316 316 315 316 318 319
301 302 303 303 304 301 301 302 302 302 302 301 299 302 303 305 306 307 307 307 308 310 310 310 311 312 312 313 315 315 316 318
297 297 298 297 299 299 299 300 299 298 298 298 298 299 301 303 304 304 304 305 306 306 305 307 310 311 312 312 313 316 317 317
297 296 296 296 295 296 296 298 298 296 297 297 297 298 299 300 301 302 302 303 303 303 304 305 306 309 309 310 312 316 317 319
294 294 293 294 294 294 295 295 296 295 294 294 294 296 296 297 297 297 298 299 299 300 301 301 303 304 307 307 309 313 317 319
292 292 292 292 292 293 294 294 295 295 294 295 296 295 295 296 296 296 296 295 297 298 299 300 301 302 305 306 307 311 314 317
292 291 290 290 290 290 291 292 293 294 294 295 295 295 295 295 294 294 295 295 296 297 298 298 299 301 303 304 306 309 312 315
290 289 289 289 289 290 291 292 293 293 294 294 294 294 294 294 293 293 293 293 294 294 295 294 295 297 299 301 303 307 310 311
289 289 289 288 289 290 290 291 292 292 293 294 294 294 294 294 293 292 292 292 292 293 294 293 293 295 296 299 300 302 304 307
289 288 288 288 288 289 290 291 291 292 291 291 290 291 291 291 292 292 293 293 293 294 293 294 293 293 294 296 297 299 300 302
288 288 288 287 287 288 288 289 290 291 291 289 289 287 287 287 287 288 288 288 289 290 291 292 293 293 294 294 295 296 296 296
288 287 287 288 287 287 288 288 289 287 286 285 285 285 286 285 286 286 285 285 285 286 286 286 287 289 291 293 294 294 294 295

GFSFLT1_850_thetae_123.txt.gz
Theta_e
310 311 312 313 314 314 315 316 318 319 320 321 320 320 321 321 322 323 323 323 325 326 328 329 330 331 333 335 336 336 336 335
307 308 308 308 310 311 311 310 312 312 313 314 313 312 312 313 313 313 313 313 313 314 315 317 320 324 326 328 330 331 333 335
304 305 306 306 306 306 307 307 307 308 309 310 310 310 311 311 311 312 312 312 312 312 313 313 314 314 314 317 323 327 330 332
302 302 302 303 304 304 304 304 305 306 306 306 307 308 308 308 308 309 310 311 312 312 313 313 314 315 315 315 315 317 323 330
301 301 302 302 302 302 303 304 305 306 306 306 306 306 306 305 306 307 308 309 310 311 312 312 314 315 316 316 316 315 315 320
303 303 303 303 303 303 303 303 302 304 305 307 307 306 305 304 303 306 307 308 309 310 311 312 313 315 316 317 317 317 316 315
301 301 302 303 304 305 305 304 304 303 304 307 307 304 305 304 305 305 307 307 308 309 310 311 312 312 314 315 315 314 315 316
299 299 299 299 300 301 302 304 304 304 303 303 302 304 304 304 302 305 305 305 306 307 308 310 311 311 311 312 314 314 314 313
298 298 298 298 298 300 299 299 300 301 302 302 303 299 301 302 303 302 301 301 302 303 305 306 308 309 309 311 311 312 313 314
297 297 296 296 297 298 298 298 299 298 299 298 300 301 299 300 301 299 299 298 300 300 301 302 303 304 305 307 309 311 312 314
295 294 294 294 294 295 296 296 296 296 294 295 294 296 296 297 297 297 297 297 298 299 299 300 301 302 303 304 306 307 309 312
295 293 293 292 293 294 295 294 294 294 295 295 295 295 297 296 296 296 296 296 297 298 298 298 298 300 302 304 306 306 307 311
294 292 291 290 292 293 293 293 293 293 293 294 294 294 294 294 295 294 295 296 295 295 295 294 296 297 298 300 302 303 306 309
292 291 290 289 289 289 292 292 292 292 293 293 294 293 294 294 294 294 294 294 294 294 294 293 292 294 295 296 298 301 302 304
291 290 289 288 288 289 291 291 291 292 292 292 292 292 292 293 293 293 294 294 294 293 293 293 292 293 293 295 295 297 299 301
290 289 288 288 288 289 290 290 290 290 290 289 289 289 289 290 290 290 291 292 293 293 294 294 293 292 292 293 294 293 295 297
289 288 288 288 287 288 290 290 290 290 290 290 289 288 287 287 286 286 287 287 288 287 288 290 292 290 290 293 293 294 294 295
289 288 288 288 287 288 289 289 290 288 286 285 285 285 285 286 286 286 286 286 285 285 285 285 286 287 288 290 292 292 292 293
288 288 287 288 288 289 289 288 287 286 285 285 284 284 284 284 284 284 284 284 284 284 284 284 284 284 285 285 288 289 290 291